BAW223N EGLL-KBNA

Flight info

Callsign BAW223N
Flight time 9h 2m
Altitude 34000
Route ULTIB1J ULTIB T420 TNT UL28 PENIL M144 BAGSO DCT DOGAL/M085F360 NATC ELSIR/N0487F380 N402C ALLEX DCT KAYCC DCT KYLOH DCT BAF Q406 BWZ J6 LRP/N0498F320 J6 MRB/N0492F400 J6 HVQ Q68 YOCKY DCT CUTRR PASLY5
Aircraft A35K/H-SBDE1E2E3GHIJ1J3J4J5J6M1M2P2RWXYZ/LB1D1

Departure

Time 2026-05-07 08:39
Airport London Heathrow Airport (EGLL)

Arrival

Time 2026-05-07 17:42
Airport Nashville International Airport (KBNA)
Time Latitude Longitude Altitude Speed Heading
2026-05-07 07:22 51.47208 -0.47213 92 ft 0 kts 90°
2026-05-07 08:25 51.47208 -0.47242 92 ft 3 kts 90°
2026-05-07 08:25 51.47208 -0.47275 90 ft 3 kts 90°
2026-05-07 08:25 51.47207 -0.47302 90 ft 3 kts 96°
2026-05-07 08:26 51.47225 -0.47351 93 ft 3 kts 167°
2026-05-07 08:26 51.47244 -0.47353 90 ft 3 kts 179°
2026-05-07 08:26 51.47263 -0.47353 91 ft 3 kts 179°
2026-05-07 08:27 51.47269 -0.47353 91 ft 0 kts 179°
2026-05-07 08:31 51.47264 -0.47353 91 ft 2 kts 179°
2026-05-07 08:32 51.47238 -0.47353 90 ft 5 kts 180°
2026-05-07 08:32 51.47190 -0.47352 91 ft 8 kts 180°
2026-05-07 08:32 51.47122 -0.47352 92 ft 11 kts 180°
2026-05-07 08:32 51.47045 -0.47351 92 ft 14 kts 180°
2026-05-07 08:33 51.46940 -0.47350 92 ft 17 kts 180°
2026-05-07 08:33 51.46814 -0.47349 92 ft 20 kts 179°
2026-05-07 08:33 51.46719 -0.47348 94 ft 21 kts 182°
2026-05-07 08:33 51.46656 -0.47533 95 ft 16 kts 266°
2026-05-07 08:34 51.46654 -0.47725 92 ft 19 kts 269°
2026-05-07 08:34 51.46653 -0.47958 92 ft 22 kts 270°
2026-05-07 08:34 51.46653 -0.48127 92 ft 23 kts 269°
2026-05-07 08:34 51.46651 -0.48460 94 ft 25 kts 270°
2026-05-07 08:35 51.46652 -0.48614 92 ft 25 kts 270°
2026-05-07 08:35 51.46642 -0.48704 95 ft 2 kts 243°
2026-05-07 08:35 51.46626 -0.48733 97 ft 6 kts 223°
2026-05-07 08:35 51.46612 -0.48750 95 ft 0 kts 213°
2026-05-07 08:36 51.46605 -0.48757 96 ft 4 kts 213°
2026-05-07 08:36 51.46563 -0.48778 95 ft 10 kts 190°
2026-05-07 08:36 51.46483 -0.48663 96 ft 16 kts 99°
2026-05-07 08:37 51.46479 -0.48547 94 ft 0 kts 90°
2026-05-07 08:38 51.46479 -0.48544 94 ft 1 kts 90°
2026-05-07 08:38 51.46479 -0.48384 96 ft 41 kts 90°
2026-05-07 08:38 51.46482 -0.47567 94 ft 104 kts 89°
2026-05-07 08:38 51.46490 -0.46111 97 ft 155 kts 90°
2026-05-07 08:39 51.46473 -0.44252 552 ft 164 kts 92°
2026-05-07 08:39 51.46675 -0.42451 1250 ft 162 kts 65°
2026-05-07 08:39 51.47342 -0.40905 1622 ft 180 kts 51°
2026-05-07 08:39 51.48213 -0.39314 1867 ft 199 kts 50°
2026-05-07 08:40 51.49177 -0.37551 2114 ft 222 kts 50°
2026-05-07 08:40 51.50230 -0.35585 2405 ft 241 kts 50°
2026-05-07 08:40 51.51315 -0.33475 2932 ft 250 kts 55°
2026-05-07 08:40 51.52097 -0.30942 3486 ft 257 kts 71°
2026-05-07 08:41 51.52688 -0.28162 4068 ft 262 kts 71°
2026-05-07 08:41 51.53368 -0.25471 4663 ft 266 kts 59°
2026-05-07 08:41 51.54634 -0.23292 5264 ft 268 kts 31°
2026-05-07 08:41 51.56345 -0.22315 5776 ft 268 kts
2026-05-07 08:42 51.58210 -0.22528 5986 ft 269 kts 347°
2026-05-07 08:42 51.60081 -0.23157 5995 ft 272 kts 346°
2026-05-07 08:42 51.61873 -0.23968 5991 ft 271 kts 335°
2026-05-07 08:42 51.63521 -0.25400 5994 ft 270 kts 327°
2026-05-07 08:43 51.65147 -0.27006 5995 ft 270 kts 327°
2026-05-07 08:43 51.66729 -0.28552 5993 ft 270 kts 327°
2026-05-07 08:43 51.68359 -0.30136 6063 ft 270 kts 327°
2026-05-07 08:43 51.69953 -0.31680 6415 ft 271 kts 327°
2026-05-07 08:44 51.71593 -0.33264 7025 ft 273 kts 327°
2026-05-07 08:44 51.73228 -0.34843 7743 ft 274 kts 328°
2026-05-07 08:44 51.74867 -0.36427 8451 ft 276 kts 328°
2026-05-07 08:44 51.76526 -0.38031 9163 ft 279 kts 328°
2026-05-07 08:45 51.78200 -0.39651 9889 ft 282 kts 329°
2026-05-07 08:45 51.79898 -0.41293 10424 ft 291 kts 329°
2026-05-07 08:45 51.81587 -0.42924 10714 ft 307 kts 329°
2026-05-07 08:45 51.83448 -0.44720 11008 ft 323 kts 329°
2026-05-07 08:46 51.85419 -0.46633 11325 ft 338 kts 328°
2026-05-07 08:46 51.87465 -0.48625 11638 ft 353 kts 328°
2026-05-07 08:46 51.89610 -0.50716 11949 ft 366 kts 328°
2026-05-07 08:46 51.91816 -0.52866 12461 ft 373 kts 328°
2026-05-07 08:47 51.94050 -0.55045 13044 ft 377 kts 328°
2026-05-07 08:47 51.96306 -0.57247 13654 ft 382 kts 328°
2026-05-07 08:47 51.98596 -0.59484 14189 ft 385 kts 328°
2026-05-07 08:47 52.00901 -0.61739 14710 ft 389 kts 328°
2026-05-07 08:48 52.03233 -0.64023 15242 ft 392 kts 328°
2026-05-07 08:48 52.05575 -0.66321 15788 ft 395 kts 328°
2026-05-07 08:48 52.07935 -0.68638 16326 ft 398 kts 328°
2026-05-07 08:48 52.10311 -0.70976 16861 ft 401 kts 328°
2026-05-07 08:49 52.12677 -0.73306 17381 ft 405 kts 328°
2026-05-07 08:49 52.15097 -0.75691 17924 ft 408 kts 328°
2026-05-07 08:49 52.17530 -0.78093 18457 ft 412 kts 328°
2026-05-07 08:49 52.19993 -0.80527 18944 ft 415 kts 328°
2026-05-07 08:50 52.22467 -0.82977 19438 ft 418 kts 328°
2026-05-07 08:50 52.24968 -0.85455 19937 ft 422 kts 328°
2026-05-07 08:50 52.27479 -0.87947 20433 ft 425 kts 328°
2026-05-07 08:50 52.30019 -0.90469 20891 ft 430 kts 328°
2026-05-07 08:51 52.32590 -0.93027 21387 ft 434 kts 328°
2026-05-07 08:51 52.35140 -0.95568 21880 ft 438 kts 328°
2026-05-07 08:51 52.37753 -0.98176 22414 ft 441 kts 328°
2026-05-07 08:51 52.40385 -1.00806 22946 ft 444 kts 328°
2026-05-07 08:52 52.43030 -1.03453 23366 ft 450 kts 329°
2026-05-07 08:52 52.45719 -1.06148 23809 ft 454 kts 329°
2026-05-07 08:52 52.48423 -1.08861 24223 ft 457 kts 329°
2026-05-07 08:52 52.51125 -1.11569 24734 ft 458 kts 329°
2026-05-07 08:53 52.53844 -1.14303 25181 ft 460 kts 329°
2026-05-07 08:53 52.56581 -1.17063 25653 ft 462 kts 329°
2026-05-07 08:53 52.59299 -1.19807 26064 ft 465 kts 329°
2026-05-07 08:53 52.62056 -1.22594 26477 ft 468 kts 329°
2026-05-07 08:54 52.64841 -1.25412 26915 ft 470 kts 329°
2026-05-07 08:54 52.67631 -1.28240 27350 ft 473 kts 329°
2026-05-07 08:54 52.70440 -1.31090 27760 ft 475 kts 329°
2026-05-07 08:54 52.73259 -1.33954 28184 ft 478 kts 329°
2026-05-07 08:55 52.76102 -1.36851 28631 ft 481 kts 329°
2026-05-07 08:55 52.78941 -1.39749 29078 ft 482 kts 329°
2026-05-07 08:55 52.81802 -1.42676 29466 ft 484 kts 329°
2026-05-07 08:55 52.84636 -1.45579 29804 ft 486 kts 329°
2026-05-07 08:56 52.87518 -1.48536 30124 ft 489 kts 329°
2026-05-07 08:56 52.90407 -1.51504 30483 ft 489 kts 329°
2026-05-07 08:56 52.93300 -1.54480 30817 ft 489 kts 329°
2026-05-07 08:56 52.96194 -1.57462 31162 ft 489 kts 329°
2026-05-07 08:57 52.99076 -1.60437 31527 ft 489 kts 329°
2026-05-07 08:57 53.01962 -1.63419 31900 ft 487 kts 329°
2026-05-07 08:57 53.04830 -1.66390 32257 ft 487 kts 329°
2026-05-07 08:57 53.07703 -1.69363 32603 ft 486 kts 329°
2026-05-07 08:58 53.10574 -1.72342 32933 ft 485 kts 329°
2026-05-07 08:58 53.13396 -1.75283 33272 ft 485 kts 329°
2026-05-07 08:58 53.16256 -1.78270 33584 ft 485 kts 329°
2026-05-07 08:58 53.19096 -1.81286 33881 ft 485 kts 327°
2026-05-07 08:59 53.21751 -1.84753 34051 ft 488 kts 319°
2026-05-07 08:59 53.24100 -1.88903 34071 ft 493 kts 309°
2026-05-07 08:59 53.27644 -1.98724 34071 ft 495 kts 298°
2026-05-07 09:00 53.30705 -2.09005 34074 ft 494 kts 296°
2026-05-07 09:00 53.33698 -2.19307 34075 ft 497 kts 296°
2026-05-07 09:01 53.36393 -2.29941 34076 ft 496 kts 289°
2026-05-07 09:01 53.38547 -2.40914 34076 ft 496 kts 288°
2026-05-07 09:02 53.40622 -2.51904 34073 ft 495 kts 288°
2026-05-07 09:02 53.42675 -2.62854 34073 ft 498 kts 287°
2026-05-07 09:03 53.44762 -2.74004 34054 ft 500 kts 287°
2026-05-07 09:03 53.46839 -2.85142 34051 ft 498 kts 287°
2026-05-07 09:04 53.48897 -2.96229 34048 ft 499 kts 287°
2026-05-07 09:04 53.50953 -3.07388 34046 ft 501 kts 287°
2026-05-07 09:05 53.52980 -3.18472 34048 ft 498 kts 287°
2026-05-07 09:05 53.55001 -3.29579 34047 ft 498 kts 287°
2026-05-07 09:06 53.57018 -3.40728 34039 ft 499 kts 287°
2026-05-07 09:06 53.59031 -3.51879 34034 ft 498 kts 287°
2026-05-07 09:07 53.60999 -3.63032 34024 ft 497 kts 284°
2026-05-07 09:07 53.61966 -3.74494 34011 ft 496 kts 274°
2026-05-07 09:08 53.62472 -3.86002 34009 ft 496 kts 273°
2026-05-07 09:08 53.62914 -3.97605 34007 ft 496 kts 273°
2026-05-07 09:09 53.63357 -4.09189 34007 ft 496 kts 273°
2026-05-07 09:09 53.63803 -4.20780 34008 ft 497 kts 272°
2026-05-07 09:10 53.64235 -4.32424 34001 ft 498 kts 272°
2026-05-07 09:10 53.64662 -4.43975 34002 ft 497 kts 272°
2026-05-07 09:11 53.65074 -4.55622 34004 ft 498 kts 272°
2026-05-07 09:11 53.65473 -4.67262 33995 ft 495 kts 271°
2026-05-07 09:12 53.65860 -4.78818 33997 ft 493 kts 271°
2026-05-07 09:12 53.66242 -4.90355 33998 ft 493 kts 271°
2026-05-07 09:13 53.66612 -5.01874 33993 ft 493 kts 271°
2026-05-07 09:13 53.66967 -5.13319 33994 ft 493 kts 271°
2026-05-07 09:14 53.67316 -5.24853 33980 ft 493 kts 271°
2026-05-07 09:14 53.67641 -5.36387 33990 ft 492 kts 271°
2026-05-07 09:15 53.67953 -5.47904 33980 ft 492 kts 271°
2026-05-07 09:15 53.68464 -5.59421 33979 ft 493 kts 275°
2026-05-07 09:16 53.69397 -5.70862 33974 ft 493 kts 276°
2026-05-07 09:16 53.70319 -5.82250 33973 ft 493 kts 276°
2026-05-07 09:17 53.71162 -5.93738 33980 ft 493 kts 275°
2026-05-07 09:17 53.71959 -6.05224 33961 ft 493 kts 275°
2026-05-07 09:18 53.72741 -6.16722 33972 ft 493 kts 275°
2026-05-07 09:18 53.73516 -6.28226 33972 ft 493 kts 274°
2026-05-07 09:19 53.74280 -6.39703 33970 ft 492 kts 274°
2026-05-07 09:19 53.75029 -6.51127 33966 ft 492 kts 274°
2026-05-07 09:20 53.75776 -6.62687 33967 ft 492 kts 274°
2026-05-07 09:20 53.76504 -6.74115 33964 ft 492 kts 274°
2026-05-07 09:21 53.77226 -6.85632 33952 ft 492 kts 274°
2026-05-07 09:21 53.77934 -6.97126 33957 ft 492 kts 274°
2026-05-07 09:22 53.78633 -7.08634 33952 ft 492 kts 274°
2026-05-07 09:22 53.79321 -7.20123 33950 ft 489 kts 273°
2026-05-07 09:23 53.79987 -7.31461 33946 ft 488 kts 273°
2026-05-07 09:23 53.80646 -7.42880 33938 ft 487 kts 273°
2026-05-07 09:24 53.81293 -7.54265 33933 ft 486 kts 272°
2026-05-07 09:24 53.81925 -7.65589 33934 ft 487 kts 272°
2026-05-07 09:25 53.82551 -7.77003 33927 ft 486 kts 272°
2026-05-07 09:25 53.83166 -7.88391 33932 ft 486 kts 272°
2026-05-07 09:26 53.83770 -7.99801 33919 ft 486 kts 272°
2026-05-07 09:26 53.84358 -8.11103 33919 ft 486 kts 272°
2026-05-07 09:27 53.84939 -8.22485 33919 ft 486 kts 272°
2026-05-07 09:28 53.85792 -8.39597 33910 ft 486 kts 272°
2026-05-07 09:28 53.86347 -8.51007 33906 ft 485 kts 271°
2026-05-07 09:29 53.86887 -8.62332 33910 ft 485 kts 271°
2026-05-07 09:29 53.87420 -8.73722 33911 ft 485 kts 271°
2026-05-07 09:30 53.87942 -8.85126 33910 ft 485 kts 271°
2026-05-07 09:30 53.88450 -8.96466 33918 ft 485 kts 271°
2026-05-07 09:31 53.88950 -9.07857 33905 ft 484 kts 271°
2026-05-07 09:31 53.89437 -9.19229 33928 ft 484 kts 271°
2026-05-07 09:32 53.89915 -9.30589 33909 ft 481 kts 270°
2026-05-07 09:32 53.90378 -9.41858 33909 ft 479 kts 270°
2026-05-07 09:33 53.90826 -9.53056 33915 ft 479 kts 270°
2026-05-07 09:33 53.91265 -9.64310 33915 ft 478 kts 270°
2026-05-07 09:34 53.91694 -9.75562 33917 ft 478 kts 270°
2026-05-07 09:34 53.92113 -9.86798 33916 ft 478 kts 270°
2026-05-07 09:35 53.92518 -9.97977 33924 ft 478 kts 270°
2026-05-07 09:35 53.92917 -10.09228 33916 ft 477 kts 269°
2026-05-07 09:36 53.93304 -10.20475 33914 ft 477 kts 269°
2026-05-07 09:36 53.93658 -10.31057 33914 ft 477 kts 269°
2026-05-07 09:37 53.94001 -10.41578 33913 ft 477 kts 269°
2026-05-07 09:37 53.94358 -10.52835 33911 ft 477 kts 269°
2026-05-07 09:38 53.94705 -10.64090 33910 ft 477 kts 269°
2026-05-07 09:38 53.95040 -10.75327 33908 ft 477 kts 269°
2026-05-07 09:39 53.95364 -10.86558 33905 ft 476 kts 269°
2026-05-07 09:39 53.95676 -10.97709 33903 ft 476 kts 269°
2026-05-07 09:40 53.95980 -11.08957 33896 ft 476 kts 268°
2026-05-07 09:40 53.96273 -11.20195 33897 ft 476 kts 268°
2026-05-07 09:41 53.96556 -11.31431 33920 ft 476 kts 268°
2026-05-07 09:41 53.96827 -11.42546 33897 ft 471 kts 268°
2026-05-07 09:42 53.97086 -11.53647 33899 ft 470 kts 268°
2026-05-07 09:42 53.97332 -11.64714 33912 ft 470 kts 268°
2026-05-07 09:43 53.97569 -11.75790 33891 ft 468 kts 268°
2026-05-07 09:43 53.97793 -11.86748 33898 ft 467 kts 267°
2026-05-07 09:44 53.98009 -11.97789 33896 ft 467 kts 267°
2026-05-07 09:44 53.98215 -12.08803 33894 ft 467 kts 267°
2026-05-07 09:45 53.98412 -12.19842 33906 ft 467 kts 267°
2026-05-07 09:45 53.98599 -12.30836 33898 ft 464 kts 267°
2026-05-07 09:46 53.98773 -12.41729 33898 ft 464 kts 267°
2026-05-07 09:46 53.98938 -12.52679 33896 ft 464 kts 267°
2026-05-07 09:47 53.99092 -12.63641 33896 ft 464 kts 266°
2026-05-07 09:47 53.99237 -12.74590 33889 ft 463 kts 266°
2026-05-07 09:48 53.99372 -12.85438 33892 ft 462 kts 266°
2026-05-07 09:48 53.99496 -12.96345 33892 ft 462 kts 266°
2026-05-07 09:49 53.99611 -13.07261 33897 ft 461 kts 266°
2026-05-07 09:49 53.99715 -13.18154 33896 ft 461 kts 266°
2026-05-07 09:50 53.99810 -13.29060 33917 ft 461 kts 266°
2026-05-07 09:50 53.99896 -13.39861 33899 ft 459 kts 266°
2026-05-07 09:51 53.99971 -13.50687 33895 ft 458 kts 266°
2026-05-07 09:51 54.00036 -13.61491 33900 ft 456 kts 266°
2026-05-07 09:52 54.00090 -13.72276 33897 ft 456 kts 266°
2026-05-07 09:52 54.00135 -13.82996 33915 ft 457 kts 266°
2026-05-07 09:53 54.00171 -13.93784 33902 ft 456 kts 266°
2026-05-07 09:53 54.00197 -14.04569 33900 ft 456 kts 266°
2026-05-07 09:54 54.00214 -14.15343 33905 ft 456 kts 266°
2026-05-07 09:54 54.00221 -14.26055 33906 ft 456 kts 266°
2026-05-07 09:55 54.00218 -14.36839 33923 ft 456 kts 266°
2026-05-07 09:55 54.00206 -14.47594 33906 ft 455 kts 266°
2026-05-07 09:56 54.00184 -14.58352 33899 ft 455 kts 266°
2026-05-07 09:56 54.00153 -14.69020 33921 ft 455 kts 266°
2026-05-07 09:57 54.00112 -14.79763 33906 ft 455 kts 266°
2026-05-07 09:57 54.00061 -14.90508 33926 ft 455 kts 266°
2026-05-07 09:58 54.00002 -15.01230 33908 ft 453 kts 266°
2026-05-07 09:58 54.00133 -15.11964 34244 ft 455 kts 269°
2026-05-07 09:58 54.00271 -15.17336 34483 ft 454 kts 269°
2026-05-07 09:59 54.00407 -15.22626 34663 ft 455 kts 269°
2026-05-07 09:59 54.00535 -15.28012 34866 ft 456 kts 269°
2026-05-07 09:59 54.00650 -15.33395 35064 ft 456 kts 269°
2026-05-07 09:59 54.00753 -15.38787 35249 ft 457 kts 269°
2026-05-07 10:00 54.00849 -15.44195 35442 ft 458 kts 269°
2026-05-07 10:00 54.00940 -15.49598 35644 ft 458 kts 269°
2026-05-07 10:00 54.01027 -15.55029 35787 ft 460 kts 269°
2026-05-07 10:00 54.01112 -15.60388 35903 ft 461 kts 269°
2026-05-07 10:01 54.01195 -15.65841 35923 ft 461 kts 269°
2026-05-07 10:01 54.01357 -15.76738 35922 ft 461 kts 269°
2026-05-07 10:02 54.01509 -15.87648 35928 ft 461 kts 269°
2026-05-07 10:02 54.01651 -15.98559 35927 ft 461 kts 269°
2026-05-07 10:03 54.01782 -16.09407 35930 ft 463 kts 269°
2026-05-07 10:03 54.01905 -16.20351 35930 ft 463 kts 269°
2026-05-07 10:04 54.02018 -16.31293 35933 ft 463 kts 269°
2026-05-07 10:04 54.02121 -16.42239 35933 ft 463 kts 269°
2026-05-07 10:05 54.02214 -16.53183 35936 ft 463 kts 269°
2026-05-07 10:05 54.02297 -16.64131 35936 ft 463 kts 269°
2026-05-07 10:06 54.02369 -16.75005 35938 ft 463 kts 269°
2026-05-07 10:06 54.02432 -16.85942 35938 ft 463 kts 269°
2026-05-07 10:07 54.02486 -16.96887 35949 ft 463 kts 269°
2026-05-07 10:07 54.02529 -17.07842 35949 ft 463 kts 268°
2026-05-07 10:08 54.02562 -17.18794 35951 ft 464 kts 269°
2026-05-07 10:08 54.02585 -17.29689 35952 ft 464 kts 268°
2026-05-07 10:09 54.02599 -17.40682 35957 ft 464 kts 268°
2026-05-07 10:09 54.02602 -17.51658 35956 ft 464 kts 268°
2026-05-07 10:10 54.02596 -17.62632 35964 ft 464 kts 268°
2026-05-07 10:10 54.02582 -17.71761 35963 ft 464 kts 268°
2026-05-07 10:11 54.02553 -17.84506 35966 ft 464 kts 268°
2026-05-07 10:11 54.02516 -17.95481 35968 ft 464 kts 268°
2026-05-07 10:12 54.02470 -18.06465 35974 ft 464 kts 268°
2026-05-07 10:12 54.02424 -18.15592 35974 ft 464 kts 268°
2026-05-07 10:13 54.02347 -18.28364 35979 ft 465 kts 268°
2026-05-07 10:13 54.02271 -18.39347 35979 ft 465 kts 268°
2026-05-07 10:14 54.02199 -18.48547 35982 ft 465 kts 268°
2026-05-07 10:14 54.02105 -18.59460 35982 ft 465 kts 268°
2026-05-07 10:15 54.02000 -18.70454 35990 ft 465 kts 268°
2026-05-07 10:15 54.01885 -18.81439 35991 ft 465 kts 268°
2026-05-07 10:16 54.01761 -18.92343 35994 ft 465 kts 268°
2026-05-07 10:16 54.01626 -19.03330 35999 ft 464 kts 268°
2026-05-07 10:17 54.01481 -19.14310 36004 ft 464 kts 268°
2026-05-07 10:17 54.01327 -19.25289 36003 ft 464 kts 268°
2026-05-07 10:18 54.01162 -19.36266 36012 ft 464 kts 268°
2026-05-07 10:18 54.00988 -19.47162 36013 ft 464 kts 268°
2026-05-07 10:19 54.00804 -19.58126 36018 ft 464 kts 268°
2026-05-07 10:19 54.00610 -19.69085 36017 ft 464 kts 268°
2026-05-07 10:20 54.00406 -19.80034 36020 ft 464 kts 268°
2026-05-07 10:20 54.00192 -19.90929 36019 ft 464 kts 268°
2026-05-07 10:21 53.99967 -20.01885 36023 ft 464 kts 268°
2026-05-07 10:21 53.99437 -20.12789 36024 ft 463 kts 264°
2026-05-07 10:22 53.98708 -20.23668 36029 ft 464 kts 263°
2026-05-07 10:22 53.98006 -20.34561 36021 ft 464 kts 264°
2026-05-07 10:23 53.97346 -20.45374 36032 ft 464 kts 264°
2026-05-07 10:23 53.96685 -20.56283 36032 ft 464 kts 264°
2026-05-07 10:24 53.96016 -20.67172 36037 ft 464 kts 264°
2026-05-07 10:24 53.95334 -20.78063 36038 ft 464 kts 264°
2026-05-07 10:25 53.94645 -20.88890 36037 ft 464 kts 264°
2026-05-07 10:25 53.93940 -20.99788 36049 ft 466 kts 264°
2026-05-07 10:26 53.93223 -21.10738 36045 ft 467 kts 264°
2026-05-07 10:26 53.92497 -21.21686 36048 ft 467 kts 264°
2026-05-07 10:27 53.91758 -21.32650 36050 ft 467 kts 264°
2026-05-07 10:27 53.91016 -21.43527 36051 ft 467 kts 264°
2026-05-07 10:28 53.90257 -21.54471 36053 ft 469 kts 264°
2026-05-07 10:28 53.89487 -21.65451 36056 ft 469 kts 264°
2026-05-07 10:29 53.88707 -21.76430 36057 ft 469 kts 264°
2026-05-07 10:29 53.87916 -21.87413 36064 ft 469 kts 264°
2026-05-07 10:30 53.86715 -22.03820 36063 ft 469 kts 264°
2026-05-07 10:30 53.85900 -22.14782 36069 ft 469 kts 264°
2026-05-07 10:31 53.85078 -22.25686 36065 ft 469 kts 264°
2026-05-07 10:31 53.84243 -22.36642 36071 ft 470 kts 264°
2026-05-07 10:32 53.83397 -22.47596 36067 ft 470 kts 264°
2026-05-07 10:32 53.82539 -22.58571 36070 ft 470 kts 264°
2026-05-07 10:33 53.81673 -22.69528 36078 ft 470 kts 264°
2026-05-07 10:33 53.80801 -22.80428 36083 ft 470 kts 264°
2026-05-07 10:34 53.79914 -22.91382 36081 ft 470 kts 264°
2026-05-07 10:34 53.79016 -23.02348 36086 ft 470 kts 264°
2026-05-07 10:35 53.78108 -23.13294 36083 ft 471 kts 264°
2026-05-07 10:35 53.77195 -23.24197 36088 ft 471 kts 264°
2026-05-07 10:36 53.76266 -23.35153 36089 ft 471 kts 264°
2026-05-07 10:36 53.75328 -23.46108 36092 ft 471 kts 264°
2026-05-07 10:37 53.74378 -23.57071 36091 ft 471 kts 263°
2026-05-07 10:37 53.73416 -23.68040 36100 ft 472 kts 264°
2026-05-07 10:38 53.72452 -23.78931 36102 ft 472 kts 264°
2026-05-07 10:38 53.71471 -23.89893 36102 ft 472 kts 263°
2026-05-07 10:39 53.70479 -24.00857 36108 ft 472 kts 263°
2026-05-07 10:39 53.69478 -24.11803 36091 ft 472 kts 264°
2026-05-07 10:40 53.68471 -24.22701 36107 ft 473 kts 264°
2026-05-07 10:40 53.67449 -24.33662 36107 ft 473 kts 263°
2026-05-07 10:41 53.66416 -24.44619 36110 ft 473 kts 263°
2026-05-07 10:41 53.65373 -24.55572 36110 ft 473 kts 263°
2026-05-07 10:42 53.64324 -24.66466 36110 ft 474 kts 264°
2026-05-07 10:42 53.63262 -24.77403 36115 ft 474 kts 264°
2026-05-07 10:43 53.62186 -24.88361 36120 ft 474 kts 263°
2026-05-07 10:43 53.61103 -24.99301 36118 ft 474 kts 263°
2026-05-07 10:44 53.60007 -25.10249 36123 ft 474 kts 263°
2026-05-07 10:44 53.58909 -25.21115 36119 ft 474 kts 264°
2026-05-07 10:45 53.57795 -25.32038 36122 ft 474 kts 264°
2026-05-07 10:45 53.56671 -25.42961 36133 ft 474 kts 264°
2026-05-07 10:46 53.55535 -25.53898 36136 ft 475 kts 264°
2026-05-07 10:46 53.54389 -25.64830 36139 ft 475 kts 263°
2026-05-07 10:47 53.53239 -25.75686 36137 ft 474 kts 264°
2026-05-07 10:47 53.52073 -25.86607 36139 ft 474 kts 264°
2026-05-07 10:48 53.50899 -25.97498 36139 ft 474 kts 264°
2026-05-07 10:48 53.49713 -26.08404 36142 ft 474 kts 264°
2026-05-07 10:49 53.48526 -26.19228 36117 ft 474 kts 264°
2026-05-07 10:49 53.47321 -26.30105 36145 ft 474 kts 264°
2026-05-07 10:50 53.46109 -26.40964 36152 ft 473 kts 264°
2026-05-07 10:50 53.44887 -26.51816 36155 ft 474 kts 264°
2026-05-07 10:51 53.43662 -26.62604 36154 ft 474 kts 264°
2026-05-07 10:51 53.42418 -26.73455 36137 ft 473 kts 264°
2026-05-07 10:52 53.41168 -26.84263 36155 ft 472 kts 264°
2026-05-07 10:52 53.39910 -26.95067 36161 ft 472 kts 264°
2026-05-07 10:53 53.38644 -27.05855 36161 ft 472 kts 264°
2026-05-07 10:53 53.37367 -27.16637 36157 ft 472 kts 264°
2026-05-07 10:54 53.36090 -27.27334 36161 ft 472 kts 264°
2026-05-07 10:54 53.34791 -27.38122 36167 ft 472 kts 264°
2026-05-07 10:55 53.33485 -27.48883 36165 ft 472 kts 264°
2026-05-07 10:55 53.32167 -27.59656 36172 ft 472 kts 264°
2026-05-07 10:56 53.30841 -27.70412 36173 ft 472 kts 264°
2026-05-07 10:56 53.29514 -27.81073 36179 ft 471 kts 264°
2026-05-07 10:57 53.28176 -27.91751 36180 ft 469 kts 264°
2026-05-07 10:57 53.26828 -28.02439 36181 ft 469 kts 264°
2026-05-07 10:58 53.25473 -28.13100 36169 ft 470 kts 264°
2026-05-07 10:58 53.24107 -28.23762 36141 ft 470 kts 264°
2026-05-07 10:59 53.22740 -28.34333 36187 ft 467 kts 264°
2026-05-07 10:59 53.21364 -28.44910 36187 ft 467 kts 264°
2026-05-07 11:00 53.19977 -28.55499 36194 ft 467 kts 264°
2026-05-07 11:00 53.18580 -28.66081 36195 ft 467 kts 264°
2026-05-07 11:01 53.17173 -28.76660 36175 ft 467 kts 265°
2026-05-07 11:01 53.15769 -28.87134 36195 ft 466 kts 265°
2026-05-07 11:02 53.14344 -28.97687 36203 ft 466 kts 264°
2026-05-07 11:02 53.12913 -29.08220 36203 ft 467 kts 264°
2026-05-07 11:03 53.11470 -29.18762 36205 ft 467 kts 264°
2026-05-07 11:03 53.10020 -29.29276 36201 ft 467 kts 264°
2026-05-07 11:04 53.08567 -29.39744 36203 ft 467 kts 264°
2026-05-07 11:04 53.07097 -29.50254 36205 ft 467 kts 264°
2026-05-07 11:05 53.05617 -29.60765 36210 ft 467 kts 264°
2026-05-07 11:05 53.04126 -29.71278 36207 ft 467 kts 264°
2026-05-07 11:06 53.02627 -29.81782 36208 ft 467 kts 264°
2026-05-07 11:06 53.01130 -29.92193 36215 ft 467 kts 264°
2026-05-07 11:07 52.99626 -30.02654 36217 ft 465 kts 265°
2026-05-07 11:07 52.98463 -30.13173 36218 ft 462 kts 268°
2026-05-07 11:08 52.97459 -30.23693 36216 ft 462 kts 268°
2026-05-07 11:08 52.96400 -30.34212 36219 ft 463 kts 268°
2026-05-07 11:09 52.95292 -30.44652 36219 ft 463 kts 267°
2026-05-07 11:09 52.94152 -30.55163 36225 ft 463 kts 267°
2026-05-07 11:10 52.93003 -30.65666 36227 ft 463 kts 267°
2026-05-07 11:10 52.91853 -30.76105 36227 ft 463 kts 267°
2026-05-07 11:11 52.90689 -30.86604 36232 ft 464 kts 267°
2026-05-07 11:11 52.89513 -30.97112 36225 ft 464 kts 266°
2026-05-07 11:12 52.88327 -31.07620 36218 ft 464 kts 266°
2026-05-07 11:12 52.87133 -31.18120 36238 ft 464 kts 266°
2026-05-07 11:13 52.85936 -31.28556 36239 ft 464 kts 266°
2026-05-07 11:13 52.84724 -31.39038 36237 ft 465 kts 266°
2026-05-07 11:14 52.83498 -31.49552 36232 ft 465 kts 266°
2026-05-07 11:14 52.82264 -31.60039 36236 ft 465 kts 266°
2026-05-07 11:15 52.81030 -31.70455 36235 ft 465 kts 266°
2026-05-07 11:15 52.79779 -31.80924 36227 ft 465 kts 266°
2026-05-07 11:16 52.78518 -31.91402 36244 ft 465 kts 266°
2026-05-07 11:16 52.77249 -32.01863 36244 ft 465 kts 265°
2026-05-07 11:17 52.75969 -32.12330 36244 ft 465 kts 265°
2026-05-07 11:17 52.74688 -32.22721 36243 ft 465 kts 265°
2026-05-07 11:18 52.73389 -32.33181 36246 ft 465 kts 265°
2026-05-07 11:18 52.72082 -32.43621 36252 ft 465 kts 265°
2026-05-07 11:19 52.70765 -32.54062 36252 ft 465 kts 265°
2026-05-07 11:19 52.69438 -32.64509 36255 ft 465 kts 265°
2026-05-07 11:20 52.68112 -32.74872 36255 ft 465 kts 265°
2026-05-07 11:20 52.66767 -32.85301 36242 ft 465 kts 265°
2026-05-07 11:21 52.65412 -32.95737 36255 ft 466 kts 265°
2026-05-07 11:21 52.64046 -33.06175 36261 ft 466 kts 265°
2026-05-07 11:22 52.62672 -33.16590 36263 ft 466 kts 265°
2026-05-07 11:22 52.61300 -33.26923 36262 ft 466 kts 265°
2026-05-07 11:23 52.59908 -33.37329 36272 ft 466 kts 264°
2026-05-07 11:23 52.58505 -33.47743 36262 ft 467 kts 264°
2026-05-07 11:24 52.57090 -33.58167 36267 ft 467 kts 264°
2026-05-07 11:24 52.55674 -33.68524 36274 ft 467 kts 264°
2026-05-07 11:25 52.54241 -33.78935 36263 ft 467 kts 264°
2026-05-07 11:25 52.52799 -33.89345 36264 ft 468 kts 264°
2026-05-07 11:26 52.51343 -33.99783 36271 ft 469 kts 264°
2026-05-07 11:26 52.49875 -34.10227 36274 ft 470 kts 264°
2026-05-07 11:27 52.48407 -34.20598 36273 ft 470 kts 264°
2026-05-07 11:27 52.46921 -34.31023 36279 ft 470 kts 264°
2026-05-07 11:28 52.45426 -34.41453 36280 ft 471 kts 264°
2026-05-07 11:28 52.43917 -34.51908 36278 ft 471 kts 264°
2026-05-07 11:29 52.42407 -34.62281 36281 ft 471 kts 264°
2026-05-07 11:29 52.40881 -34.72701 36288 ft 470 kts 264°
2026-05-07 11:30 52.39348 -34.83108 36287 ft 470 kts 264°
2026-05-07 11:30 52.37804 -34.93518 36283 ft 470 kts 264°
2026-05-07 11:31 52.36254 -35.03905 36284 ft 470 kts 264°
2026-05-07 11:31 52.34701 -35.14237 36284 ft 471 kts 263°
2026-05-07 11:32 52.32340 -35.29819 36284 ft 471 kts 263°
2026-05-07 11:33 52.30755 -35.40194 36286 ft 471 kts 263°
2026-05-07 11:33 52.29171 -35.50498 36287 ft 471 kts 263°
2026-05-07 11:34 52.27566 -35.60869 36290 ft 471 kts 263°
2026-05-07 11:34 52.25954 -35.71223 36289 ft 471 kts 263°
2026-05-07 11:35 52.24330 -35.81584 36286 ft 471 kts 263°
2026-05-07 11:35 52.22710 -35.91866 36287 ft 471 kts 263°
2026-05-07 11:36 52.21069 -36.02207 36288 ft 471 kts 263°
2026-05-07 11:36 52.19419 -36.12538 36289 ft 471 kts 263°
2026-05-07 11:37 52.17763 -36.22840 36288 ft 469 kts 263°
2026-05-07 11:37 52.16102 -36.33110 36254 ft 468 kts 262°
2026-05-07 11:38 52.14445 -36.43312 36288 ft 470 kts 262°
2026-05-07 11:38 52.12764 -36.53590 36294 ft 470 kts 262°
2026-05-07 11:39 52.11072 -36.63868 36299 ft 470 kts 262°
2026-05-07 11:39 52.09374 -36.74123 36297 ft 470 kts 262°
2026-05-07 11:40 52.07664 -36.84383 36282 ft 470 kts 262°
2026-05-07 11:40 52.05957 -36.94571 36295 ft 470 kts 262°
2026-05-07 11:41 52.04231 -37.04807 36294 ft 470 kts 262°
2026-05-07 11:41 52.02495 -37.15042 36295 ft 470 kts 262°
2026-05-07 11:42 52.00750 -37.25271 36292 ft 470 kts 262°
2026-05-07 11:42 51.99010 -37.35415 36295 ft 470 kts 261°
2026-05-07 11:43 51.97245 -37.45642 36297 ft 470 kts 261°
2026-05-07 11:43 51.95473 -37.55850 36295 ft 470 kts 261°
2026-05-07 11:44 51.93693 -37.66044 36284 ft 470 kts 261°
2026-05-07 11:44 51.91919 -37.76138 36293 ft 468 kts 261°
2026-05-07 11:45 51.90129 -37.86280 36289 ft 468 kts 261°
2026-05-07 11:45 51.88331 -37.96413 36290 ft 469 kts 261°
2026-05-07 11:46 51.86521 -38.06550 36292 ft 469 kts 261°
2026-05-07 11:46 51.84713 -38.16616 36290 ft 469 kts 261°
2026-05-07 11:47 51.82887 -38.26728 36265 ft 469 kts 260°
2026-05-07 11:47 51.81051 -38.36844 36286 ft 470 kts 260°
2026-05-07 11:48 51.79201 -38.46976 36284 ft 470 kts 260°
2026-05-07 11:48 51.77341 -38.57103 36285 ft 470 kts 260°
2026-05-07 11:49 51.75485 -38.67154 36292 ft 470 kts 260°
2026-05-07 11:49 51.73610 -38.77254 36282 ft 471 kts 259°
2026-05-07 11:50 51.71722 -38.87377 36290 ft 471 kts 259°
2026-05-07 11:50 51.69824 -38.97485 36289 ft 471 kts 259°
2026-05-07 11:51 51.67917 -39.07594 36287 ft 471 kts 259°
2026-05-07 11:51 51.66015 -39.17618 36283 ft 470 kts 259°
2026-05-07 11:52 51.64098 -39.27665 36286 ft 469 kts 259°
2026-05-07 11:52 51.62177 -39.37689 36284 ft 468 kts 259°
2026-05-07 11:53 51.60249 -39.47698 36285 ft 469 kts 258°
2026-05-07 11:53 51.58323 -39.57637 36287 ft 469 kts 258°
2026-05-07 11:54 51.56378 -39.67628 36261 ft 469 kts 258°
2026-05-07 11:54 51.54421 -39.77624 36285 ft 468 kts 258°
2026-05-07 11:55 51.52458 -39.87599 36281 ft 469 kts 258°
2026-05-07 11:55 51.50512 -39.97514 36279 ft 467 kts 260°
2026-05-07 11:56 51.49197 -40.07630 36282 ft 462 kts 265°
2026-05-07 11:56 51.48116 -40.17804 36266 ft 462 kts 266°
2026-05-07 11:57 51.47067 -40.27957 36277 ft 462 kts 266°
2026-05-07 11:57 51.46005 -40.38057 36279 ft 462 kts 265°
2026-05-07 11:58 51.44919 -40.48210 36279 ft 462 kts 265°
2026-05-07 11:58 51.43819 -40.58367 36279 ft 462 kts 265°
2026-05-07 11:59 51.42714 -40.68496 36277 ft 462 kts 265°
2026-05-07 11:59 51.41596 -40.78659 36280 ft 463 kts 265°
2026-05-07 12:00 51.40469 -40.88818 36279 ft 464 kts 265°
2026-05-07 12:00 51.39338 -40.98916 36278 ft 464 kts 265°
2026-05-07 12:01 51.38193 -41.09078 36271 ft 464 kts 265°
2026-05-07 12:01 51.37039 -41.19236 36269 ft 464 kts 265°
2026-05-07 12:02 51.35877 -41.29385 36269 ft 464 kts 264°
2026-05-07 12:02 51.34704 -41.39547 36258 ft 465 kts 264°
2026-05-07 12:03 51.33529 -41.49631 36267 ft 464 kts 264°
2026-05-07 12:03 51.32338 -41.59770 36267 ft 464 kts 264°
2026-05-07 12:04 51.31140 -41.69898 36266 ft 464 kts 264°
2026-05-07 12:04 51.29935 -41.80018 36257 ft 464 kts 263°
2026-05-07 12:05 51.28725 -41.90094 36263 ft 465 kts 263°
2026-05-07 12:05 51.27495 -42.00244 36262 ft 465 kts 263°
2026-05-07 12:06 51.26258 -42.10388 36267 ft 466 kts 263°
2026-05-07 12:06 51.25010 -42.20538 36260 ft 466 kts 263°
2026-05-07 12:07 51.23763 -42.30607 36257 ft 466 kts 263°
2026-05-07 12:07 51.22498 -42.40744 36259 ft 465 kts 263°
2026-05-07 12:08 51.21228 -42.50842 36260 ft 464 kts 263°
2026-05-07 12:08 51.19950 -42.60933 36257 ft 464 kts 263°
2026-05-07 12:09 51.18665 -42.71014 36258 ft 464 kts 263°
2026-05-07 12:09 51.17379 -42.81025 36244 ft 464 kts 262°
2026-05-07 12:10 51.16074 -42.91111 36257 ft 466 kts 262°
2026-05-07 12:10 51.14756 -43.01219 36255 ft 466 kts 262°
2026-05-07 12:11 51.13429 -43.11323 36252 ft 466 kts 262°
2026-05-07 12:11 51.12104 -43.21342 36253 ft 466 kts 262°
2026-05-07 12:12 51.10760 -43.31432 36238 ft 466 kts 262°
2026-05-07 12:12 51.09406 -43.41537 36245 ft 468 kts 261°
2026-05-07 12:13 51.08037 -43.51675 36252 ft 469 kts 261°
2026-05-07 12:13 51.06668 -43.61736 36248 ft 469 kts 261°
2026-05-07 12:14 51.05282 -43.71857 36250 ft 469 kts 261°
2026-05-07 12:14 51.03886 -43.81980 36248 ft 469 kts 261°
2026-05-07 12:15 51.02481 -43.92109 36244 ft 470 kts 261°
2026-05-07 12:15 51.01062 -44.02256 36259 ft 470 kts 261°
2026-05-07 12:16 50.99636 -44.12388 36257 ft 470 kts 261°
2026-05-07 12:16 50.98209 -44.22460 36235 ft 471 kts 261°
2026-05-07 12:17 50.96766 -44.32581 36240 ft 471 kts 260°
2026-05-07 12:17 50.95313 -44.42700 36248 ft 470 kts 260°
2026-05-07 12:18 50.93851 -44.52818 36246 ft 471 kts 260°
2026-05-07 12:18 50.92390 -44.62855 36247 ft 471 kts 259°
2026-05-07 12:19 50.90912 -44.72953 36242 ft 471 kts 259°
2026-05-07 12:19 50.89424 -44.83048 36243 ft 471 kts 259°
2026-05-07 12:20 50.87925 -44.93149 36240 ft 471 kts 259°
2026-05-07 12:20 50.86420 -45.03228 36241 ft 471 kts 259°
2026-05-07 12:21 50.84914 -45.13253 36243 ft 471 kts 259°
2026-05-07 12:21 50.83389 -45.23338 36244 ft 471 kts 259°
2026-05-07 12:22 50.81857 -45.33405 36241 ft 470 kts 258°
2026-05-07 12:22 50.80324 -45.43415 36241 ft 468 kts 258°
2026-05-07 12:23 50.78785 -45.53402 36238 ft 468 kts 258°
2026-05-07 12:23 50.77246 -45.63330 36238 ft 468 kts 258°
2026-05-07 12:24 50.75689 -45.73306 36240 ft 468 kts 258°
2026-05-07 12:24 50.74125 -45.83274 36241 ft 468 kts 258°
2026-05-07 12:25 50.72551 -45.93243 36240 ft 468 kts 258°
2026-05-07 12:25 50.70981 -46.03123 36241 ft 468 kts 258°
2026-05-07 12:26 50.69389 -46.13082 36237 ft 468 kts 258°
2026-05-07 12:26 50.67790 -46.23028 36242 ft 468 kts 257°
2026-05-07 12:27 50.66184 -46.32962 36241 ft 467 kts 257°
2026-05-07 12:27 50.64844 -46.41201 36239 ft 467 kts 257°
2026-05-07 12:28 50.62963 -46.52699 36234 ft 467 kts 257°
2026-05-07 12:28 50.61334 -46.62591 36235 ft 467 kts 257°
2026-05-07 12:29 50.59698 -46.72470 36241 ft 467 kts 257°
2026-05-07 12:29 50.58331 -46.80683 36238 ft 467 kts 257°
2026-05-07 12:30 50.56412 -46.92152 36238 ft 467 kts 256°
2026-05-07 12:30 50.55019 -47.00424 36244 ft 467 kts 256°
2026-05-07 12:31 50.53360 -47.10224 36238 ft 467 kts 256°
2026-05-07 12:31 50.51682 -47.20082 36236 ft 466 kts 256°
2026-05-07 12:32 50.50002 -47.29897 36238 ft 465 kts 256°
2026-05-07 12:32 50.48316 -47.39687 36238 ft 465 kts 256°
2026-05-07 12:33 50.45780 -47.54317 36235 ft 465 kts 256°
2026-05-07 12:33 50.44071 -47.64104 36235 ft 465 kts 256°
2026-05-07 12:34 50.42356 -47.73878 36238 ft 465 kts 255°
2026-05-07 12:34 50.40632 -47.83644 36238 ft 465 kts 255°
2026-05-07 12:35 50.38911 -47.93343 36238 ft 465 kts 255°
2026-05-07 12:35 50.37169 -48.03111 36235 ft 465 kts 255°
2026-05-07 12:36 50.35423 -48.12845 36238 ft 464 kts 255°
2026-05-07 12:36 50.33671 -48.22559 36238 ft 462 kts 255°
2026-05-07 12:37 50.31916 -48.32234 36233 ft 462 kts 255°
2026-05-07 12:37 50.30167 -48.41832 36237 ft 461 kts 254°
2026-05-07 12:38 50.28402 -48.51467 36238 ft 461 kts 254°
2026-05-07 12:38 50.26627 -48.61100 36236 ft 461 kts 254°
2026-05-07 12:39 50.24847 -48.70715 36231 ft 461 kts 254°
2026-05-07 12:39 50.23057 -48.80332 36232 ft 461 kts 254°
2026-05-07 12:40 50.21273 -48.89867 36236 ft 460 kts 254°
2026-05-07 12:40 50.19475 -48.99429 36235 ft 459 kts 253°
2026-05-07 12:41 50.17675 -49.08952 36231 ft 454 kts 253°
2026-05-07 12:41 50.15888 -49.18362 36233 ft 452 kts 253°
2026-05-07 12:42 50.14108 -49.27684 36232 ft 452 kts 253°
2026-05-07 12:42 50.12310 -49.37057 36232 ft 451 kts 253°
2026-05-07 12:43 50.10508 -49.46404 36225 ft 450 kts 253°
2026-05-07 12:43 50.08700 -49.55736 36224 ft 450 kts 253°
2026-05-07 12:44 50.06896 -49.65003 36224 ft 450 kts 253°
2026-05-07 12:44 50.05073 -49.74319 36219 ft 450 kts 253°
2026-05-07 12:45 50.03244 -49.83625 36220 ft 450 kts 252°
2026-05-07 12:45 50.01410 -49.92907 36219 ft 449 kts 252°
2026-05-07 12:46 49.99566 -50.02173 36220 ft 448 kts 251°
2026-05-07 12:46 49.97463 -50.11211 36213 ft 448 kts 249°
2026-05-07 12:47 49.95200 -50.20244 36213 ft 448 kts 249°
2026-05-07 12:47 49.92967 -50.29274 36212 ft 448 kts 249°
2026-05-07 12:48 49.90762 -50.38316 36217 ft 447 kts 249°
2026-05-07 12:48 49.88565 -50.47346 36210 ft 447 kts 249°
2026-05-07 12:49 49.86379 -50.56298 36216 ft 447 kts 249°
2026-05-07 12:49 49.84165 -50.65315 36218 ft 447 kts 249°
2026-05-07 12:50 49.81947 -50.74311 36209 ft 448 kts 248°
2026-05-07 12:50 49.79718 -50.83314 36214 ft 448 kts 248°
2026-05-07 12:51 49.77498 -50.92248 36212 ft 447 kts 248°
2026-05-07 12:51 49.75264 -51.01196 36211 ft 445 kts 248°
2026-05-07 12:52 49.73024 -51.10129 36210 ft 445 kts 248°
2026-05-07 12:52 49.70782 -51.19040 36207 ft 446 kts 247°
2026-05-07 12:53 49.68527 -51.27965 36208 ft 446 kts 247°
2026-05-07 12:53 49.66283 -51.36816 36203 ft 446 kts 247°
2026-05-07 12:54 49.64017 -51.45716 36200 ft 446 kts 247°
2026-05-07 12:54 49.61746 -51.54600 36200 ft 445 kts 247°
2026-05-07 12:55 49.59467 -51.63484 36205 ft 446 kts 246°
2026-05-07 12:55 49.57196 -51.72299 36193 ft 446 kts 246°
2026-05-07 12:56 49.54902 -51.81169 36194 ft 446 kts 246°
2026-05-07 12:56 49.52602 -51.90029 36201 ft 445 kts 246°
2026-05-07 12:57 49.50303 -51.98851 36192 ft 444 kts 245°
2026-05-07 12:57 49.48068 -52.07635 36181 ft 444 kts 246°
2026-05-07 12:58 49.45892 -52.16513 36184 ft 444 kts 246°
2026-05-07 12:58 49.43712 -52.25371 36184 ft 444 kts 246°
2026-05-07 12:59 49.41508 -52.34231 36235 ft 444 kts 246°
2026-05-07 12:59 49.40402 -52.38650 36496 ft 444 kts 246°
2026-05-07 12:59 49.39294 -52.43068 36821 ft 442 kts 246°
2026-05-07 13:00 49.38206 -52.47399 37102 ft 440 kts 246°
2026-05-07 13:00 49.37106 -52.51776 37384 ft 439 kts 246°
2026-05-07 13:00 49.36008 -52.56132 37632 ft 438 kts 246°
2026-05-07 13:00 49.34908 -52.60481 37866 ft 437 kts 246°
2026-05-07 13:01 49.33804 -52.64835 38097 ft 437 kts 246°
2026-05-07 13:01 49.32703 -52.69171 38164 ft 437 kts 246°
2026-05-07 13:01 49.30496 -52.77839 38168 ft 436 kts 246°
2026-05-07 13:02 49.28301 -52.86429 38157 ft 436 kts 245°
2026-05-07 13:02 49.26079 -52.95091 38162 ft 437 kts 245°
2026-05-07 13:03 49.23848 -53.03754 38159 ft 438 kts 245°
2026-05-07 13:03 49.21611 -53.12413 38156 ft 438 kts 244°
2026-05-07 13:04 49.19383 -53.21003 38151 ft 438 kts 244°
2026-05-07 13:04 49.17132 -53.29652 38153 ft 438 kts 244°
2026-05-07 13:05 49.14876 -53.38287 38157 ft 438 kts 244°
2026-05-07 13:05 49.12612 -53.46918 38154 ft 438 kts 244°
2026-05-07 13:06 49.10358 -53.55477 38153 ft 438 kts 244°
2026-05-07 13:06 49.08082 -53.64090 38154 ft 438 kts 244°
2026-05-07 13:07 49.05801 -53.72688 38184 ft 437 kts 244°
2026-05-07 13:07 49.03535 -53.81212 38155 ft 430 kts 244°
2026-05-07 13:08 49.01294 -53.89602 38149 ft 426 kts 244°
2026-05-07 13:08 48.99070 -53.97889 38148 ft 426 kts 244°
2026-05-07 13:09 48.96823 -54.06234 38154 ft 426 kts 244°
2026-05-07 13:09 48.94568 -54.14581 38154 ft 426 kts 244°
2026-05-07 13:10 48.92313 -54.22900 38159 ft 425 kts 244°
2026-05-07 13:10 48.90058 -54.31193 38152 ft 423 kts 244°
2026-05-07 13:11 48.87819 -54.39393 38132 ft 423 kts 244°
2026-05-07 13:11 48.85559 -54.47640 38130 ft 423 kts 243°
2026-05-07 13:12 48.83291 -54.55889 38130 ft 423 kts 243°
2026-05-07 13:12 48.81035 -54.64073 38127 ft 423 kts 243°
2026-05-07 13:13 48.78755 -54.72307 38125 ft 424 kts 243°
2026-05-07 13:13 48.76464 -54.80552 38129 ft 425 kts 242°
2026-05-07 13:14 48.74164 -54.88803 38129 ft 424 kts 242°
2026-05-07 13:14 48.71863 -54.97030 38123 ft 424 kts 242°
2026-05-07 13:15 48.69572 -55.05194 38119 ft 424 kts 242°
2026-05-07 13:15 48.67251 -55.13430 38118 ft 426 kts 242°
2026-05-07 13:16 48.64920 -55.21678 38113 ft 427 kts 242°
2026-05-07 13:16 48.62596 -55.29872 38113 ft 427 kts 242°
2026-05-07 13:17 48.60255 -55.38102 38095 ft 426 kts 242°
2026-05-07 13:17 48.57904 -55.46334 38087 ft 427 kts 242°
2026-05-07 13:18 48.55541 -55.54578 38103 ft 430 kts 242°
2026-05-07 13:18 48.53155 -55.62874 38082 ft 431 kts 242°
2026-05-07 13:19 48.50781 -55.71107 38083 ft 431 kts 242°
2026-05-07 13:19 48.48386 -55.79383 38087 ft 431 kts 242°
2026-05-07 13:20 48.45985 -55.87648 38061 ft 431 kts 242°
2026-05-07 13:20 48.43569 -55.95933 38074 ft 433 kts 242°
2026-05-07 13:21 48.41146 -56.04217 38067 ft 433 kts 242°
2026-05-07 13:21 48.38731 -56.12449 38067 ft 433 kts 242°
2026-05-07 13:22 48.36293 -56.20732 38057 ft 433 kts 242°
2026-05-07 13:22 48.33850 -56.29000 38059 ft 433 kts 242°
2026-05-07 13:23 48.31397 -56.37272 38052 ft 433 kts 242°
2026-05-07 13:23 48.28958 -56.45471 38043 ft 433 kts 242°
2026-05-07 13:24 48.26498 -56.53714 38041 ft 432 kts 242°
2026-05-07 13:24 48.24036 -56.61935 38038 ft 432 kts 242°
2026-05-07 13:25 48.21565 -56.70158 38042 ft 433 kts 242°
2026-05-07 13:25 48.19084 -56.78388 38040 ft 434 kts 242°
2026-05-07 13:26 48.16611 -56.86564 38053 ft 434 kts 242°
2026-05-07 13:26 48.14116 -56.94788 38049 ft 434 kts 242°
2026-05-07 13:27 48.11611 -57.03011 38058 ft 434 kts 241°
2026-05-07 13:27 48.09103 -57.11220 38055 ft 434 kts 242°
2026-05-07 13:28 48.06594 -57.19404 38062 ft 437 kts 242°
2026-05-07 13:28 48.04059 -57.27650 38060 ft 437 kts 242°
2026-05-07 13:29 48.01517 -57.35892 38059 ft 437 kts 242°
2026-05-07 13:29 47.98966 -57.44133 38049 ft 437 kts 242°
2026-05-07 13:30 47.96431 -57.52287 38046 ft 437 kts 242°
2026-05-07 13:30 47.93869 -57.60512 38049 ft 437 kts 242°
2026-05-07 13:31 47.91306 -57.68713 38047 ft 437 kts 242°
2026-05-07 13:31 47.88734 -57.76913 38033 ft 437 kts 242°
2026-05-07 13:32 47.86176 -57.85046 38036 ft 437 kts 242°
2026-05-07 13:32 47.83595 -57.93221 38034 ft 436 kts 243°
2026-05-07 13:33 47.81008 -58.01390 38028 ft 436 kts 242°
2026-05-07 13:33 47.78423 -58.09529 38015 ft 433 kts 243°
2026-05-07 13:34 47.74579 -58.21581 38015 ft 432 kts 243°
2026-05-07 13:35 47.72001 -58.29629 38029 ft 431 kts 243°
2026-05-07 13:35 47.69436 -58.37615 37995 ft 426 kts 242°
2026-05-07 13:36 47.66889 -58.45520 37990 ft 425 kts 242°
2026-05-07 13:36 47.64352 -58.53365 37990 ft 425 kts 242°
2026-05-07 13:37 47.61794 -58.61250 37985 ft 424 kts 242°
2026-05-07 13:37 47.59229 -58.69134 37980 ft 424 kts 242°
2026-05-07 13:38 47.56676 -58.76961 37953 ft 420 kts 242°
2026-05-07 13:38 47.54154 -58.84665 37973 ft 419 kts 242°
2026-05-07 13:39 47.51605 -58.92432 37950 ft 419 kts 242°
2026-05-07 13:39 47.49055 -59.00175 37949 ft 419 kts 242°
2026-05-07 13:40 47.46497 -59.07918 37942 ft 419 kts 242°
2026-05-07 13:40 47.43933 -59.15659 37922 ft 419 kts 242°
2026-05-07 13:41 47.41382 -59.23337 37906 ft 419 kts 242°
2026-05-07 13:41 47.38811 -59.31053 37910 ft 419 kts 242°
2026-05-07 13:42 47.36235 -59.38761 37898 ft 419 kts 242°
2026-05-07 13:42 47.33650 -59.46469 37906 ft 419 kts 242°
2026-05-07 13:43 47.31079 -59.54115 37904 ft 419 kts 242°
2026-05-07 13:43 47.28482 -59.61816 37883 ft 419 kts 242°
2026-05-07 13:44 47.25883 -59.69501 37871 ft 420 kts 242°
2026-05-07 13:44 47.23272 -59.77196 37870 ft 420 kts 242°
2026-05-07 13:45 47.20653 -59.84891 37857 ft 420 kts 242°
2026-05-07 13:45 47.18052 -59.92514 37864 ft 420 kts 242°
2026-05-07 13:46 47.15429 -60.00178 37848 ft 420 kts 242°
2026-05-07 13:46 47.12798 -60.07845 37847 ft 420 kts 242°
2026-05-07 13:47 47.10160 -60.15505 37844 ft 420 kts 242°
2026-05-07 13:47 47.07538 -60.23102 37842 ft 420 kts 242°
2026-05-07 13:48 47.04893 -60.30741 37820 ft 420 kts 242°
2026-05-07 13:48 47.02241 -60.38375 37818 ft 420 kts 242°
2026-05-07 13:49 46.99587 -60.46006 37834 ft 420 kts 241°
2026-05-07 13:49 46.96936 -60.53592 37807 ft 422 kts 241°
2026-05-07 13:50 46.94256 -60.61238 37795 ft 423 kts 242°
2026-05-07 13:50 46.91561 -60.68908 37795 ft 424 kts 242°
2026-05-07 13:51 46.88859 -60.76577 37803 ft 424 kts 242°
2026-05-07 13:51 46.86151 -60.84242 37800 ft 424 kts 242°
2026-05-07 13:52 46.83459 -60.91839 37767 ft 424 kts 242°
2026-05-07 13:52 46.80740 -60.99490 37767 ft 425 kts 242°
2026-05-07 13:53 46.78007 -61.07157 37755 ft 426 kts 242°
2026-05-07 13:53 46.75271 -61.14810 37756 ft 425 kts 242°
2026-05-07 13:54 46.72529 -61.22457 37797 ft 426 kts 242°
2026-05-07 13:54 46.69814 -61.30012 37745 ft 423 kts 242°
2026-05-07 13:55 46.67085 -61.37579 37742 ft 420 kts 242°
2026-05-07 13:55 46.64368 -61.45094 37746 ft 419 kts 242°
2026-05-07 13:56 46.61649 -61.52591 37732 ft 419 kts 242°
2026-05-07 13:56 46.58928 -61.60074 37762 ft 419 kts 242°
2026-05-07 13:57 46.56200 -61.67560 37748 ft 418 kts 242°
2026-05-07 13:57 46.53494 -61.74961 37767 ft 417 kts 242°
2026-05-07 13:58 46.50767 -61.82398 37768 ft 417 kts 242°
2026-05-07 13:58 46.48035 -61.89827 37775 ft 417 kts 242°
2026-05-07 13:59 46.45301 -61.97242 37809 ft 417 kts 242°
2026-05-07 13:59 46.42572 -62.04627 37768 ft 418 kts 242°
2026-05-07 14:00 46.39825 -62.12037 37777 ft 417 kts 242°
2026-05-07 14:00 46.37080 -62.19420 37759 ft 416 kts 242°
2026-05-07 14:01 46.34330 -62.26797 37741 ft 416 kts 242°
2026-05-07 14:01 46.31593 -62.34120 37745 ft 416 kts 242°
2026-05-07 14:02 46.28837 -62.41475 37743 ft 415 kts 243°
2026-05-07 14:02 46.26086 -62.48794 37733 ft 413 kts 242°
2026-05-07 14:03 46.23340 -62.56084 37733 ft 413 kts 242°
2026-05-07 14:03 46.20586 -62.63372 37712 ft 413 kts 242°
2026-05-07 14:04 46.17850 -62.70594 37720 ft 413 kts 242°
2026-05-07 14:04 46.15090 -62.77861 37727 ft 412 kts 242°
2026-05-07 14:05 46.12341 -62.85083 37729 ft 410 kts 242°
2026-05-07 14:05 46.09598 -62.92265 37728 ft 410 kts 242°
2026-05-07 14:06 46.06864 -62.99407 37726 ft 410 kts 242°
2026-05-07 14:06 46.04108 -63.06587 37723 ft 409 kts 242°
2026-05-07 14:07 46.01354 -63.13740 37719 ft 407 kts 242°
2026-05-07 14:07 45.98620 -63.20824 37722 ft 405 kts 242°
2026-05-07 14:08 45.95884 -63.27896 37722 ft 405 kts 242°
2026-05-07 14:08 45.93160 -63.34920 37708 ft 405 kts 242°
2026-05-07 14:09 45.90416 -63.41977 37696 ft 405 kts 242°
2026-05-07 14:09 45.87665 -63.49032 37710 ft 404 kts 242°
2026-05-07 14:10 45.84918 -63.56061 37713 ft 404 kts 242°
2026-05-07 14:10 45.82181 -63.63045 37704 ft 404 kts 242°
2026-05-07 14:11 45.79426 -63.70058 37705 ft 404 kts 242°
2026-05-07 14:11 45.76665 -63.77068 37707 ft 404 kts 242°
2026-05-07 14:12 45.73897 -63.84077 37710 ft 404 kts 242°
2026-05-07 14:12 45.71129 -63.91071 37705 ft 404 kts 242°
2026-05-07 14:13 45.68372 -63.98018 37711 ft 404 kts 242°
2026-05-07 14:13 45.65595 -64.04997 37710 ft 404 kts 242°
2026-05-07 14:14 45.62812 -64.11975 37696 ft 404 kts 242°
2026-05-07 14:14 45.60034 -64.18924 37713 ft 402 kts 242°
2026-05-07 14:15 45.57274 -64.25807 37719 ft 402 kts 242°
2026-05-07 14:15 45.54491 -64.32730 37719 ft 402 kts 242°
2026-05-07 14:16 45.51709 -64.39633 37728 ft 402 kts 242°
2026-05-07 14:16 45.48919 -64.46542 37725 ft 401 kts 242°
2026-05-07 14:17 45.46162 -64.53351 37738 ft 398 kts 242°
2026-05-07 14:17 45.43395 -64.60170 37737 ft 397 kts 242°
2026-05-07 14:18 45.40629 -64.66971 37742 ft 397 kts 242°
2026-05-07 14:18 45.37858 -64.73767 37746 ft 397 kts 242°
2026-05-07 14:19 45.35103 -64.80504 37747 ft 396 kts 241°
2026-05-07 14:19 45.32341 -64.87243 37767 ft 394 kts 241°
2026-05-07 14:20 45.29572 -64.93982 37746 ft 397 kts 241°
2026-05-07 14:20 45.26785 -65.00747 37749 ft 397 kts 241°
2026-05-07 14:21 45.23993 -65.07511 37752 ft 397 kts 240°
2026-05-07 14:21 45.21214 -65.14226 37751 ft 397 kts 240°
2026-05-07 14:22 45.18422 -65.20958 37753 ft 396 kts 240°
2026-05-07 14:22 45.15627 -65.27680 37752 ft 396 kts 240°
2026-05-07 14:23 45.12825 -65.34402 37752 ft 396 kts 240°
2026-05-07 14:23 45.10041 -65.41066 37752 ft 396 kts 240°
2026-05-07 14:24 45.07236 -65.47763 37749 ft 394 kts 241°
2026-05-07 14:24 45.04456 -65.54388 37761 ft 391 kts 241°
2026-05-07 14:25 45.01666 -65.61024 37752 ft 395 kts 240°
2026-05-07 14:25 44.98862 -65.67672 37754 ft 397 kts 240°
2026-05-07 14:26 44.96035 -65.74357 37756 ft 397 kts 240°
2026-05-07 14:26 44.93209 -65.81022 37754 ft 394 kts 240°
2026-05-07 14:27 44.90406 -65.87621 37754 ft 391 kts 240°
2026-05-07 14:27 44.87623 -65.94159 37755 ft 391 kts 240°
2026-05-07 14:28 44.84819 -66.00732 37756 ft 391 kts 240°
2026-05-07 14:28 44.82010 -66.07300 37754 ft 391 kts 240°
2026-05-07 14:29 44.79204 -66.13845 37746 ft 389 kts 241°
2026-05-07 14:29 44.76412 -66.20342 37757 ft 387 kts 240°
2026-05-07 14:30 44.73638 -66.26784 37746 ft 387 kts 240°
2026-05-07 14:30 44.70844 -66.33259 37745 ft 387 kts 240°
2026-05-07 14:31 44.68046 -66.39726 37748 ft 387 kts 240°
2026-05-07 14:31 44.65245 -66.46187 37740 ft 387 kts 240°
2026-05-07 14:32 44.62460 -66.52596 37756 ft 387 kts 240°
2026-05-07 14:32 44.59651 -66.59046 37758 ft 387 kts 240°
2026-05-07 14:33 44.56838 -66.65489 37761 ft 387 kts 240°
2026-05-07 14:33 44.54020 -66.71927 37753 ft 387 kts 240°
2026-05-07 14:34 44.51208 -66.78338 37759 ft 385 kts 241°
2026-05-07 14:34 44.48427 -66.84668 37757 ft 384 kts 241°
2026-05-07 14:35 44.45622 -66.91041 37758 ft 387 kts 240°
2026-05-07 14:35 44.42820 -66.97496 37762 ft 388 kts 243°
2026-05-07 14:36 44.40753 -67.04455 37763 ft 387 kts 251°
2026-05-07 14:36 44.39202 -67.11618 37766 ft 388 kts 253°
2026-05-07 14:37 44.37714 -67.18868 37766 ft 388 kts 253°
2026-05-07 14:37 44.35465 -67.29721 37766 ft 388 kts 252°
2026-05-07 14:38 44.33945 -67.36945 37772 ft 388 kts 252°
2026-05-07 14:38 44.32415 -67.44178 37774 ft 389 kts 252°
2026-05-07 14:39 44.30886 -67.51381 37769 ft 390 kts 252°
2026-05-07 14:39 44.29341 -67.58641 37771 ft 389 kts 252°
2026-05-07 14:40 44.27798 -67.65865 37774 ft 388 kts 252°
2026-05-07 14:40 44.26252 -67.73078 37777 ft 388 kts 252°
2026-05-07 14:41 44.24710 -67.80247 37777 ft 388 kts 252°
2026-05-07 14:41 44.23154 -67.87456 37777 ft 388 kts 252°
2026-05-07 14:42 44.21592 -67.94673 37777 ft 390 kts 252°
2026-05-07 14:42 44.20015 -68.01930 37760 ft 391 kts 252°
2026-05-07 14:43 44.18442 -68.09146 37779 ft 387 kts 252°
2026-05-07 14:43 44.16885 -68.16263 37780 ft 386 kts 252°
2026-05-07 14:44 44.15314 -68.23415 37782 ft 386 kts 252°
2026-05-07 14:44 44.13738 -68.30571 37781 ft 386 kts 252°
2026-05-07 14:45 44.12160 -68.37710 37829 ft 386 kts 252°
2026-05-07 14:45 44.10579 -68.44844 37781 ft 390 kts 252°
2026-05-07 14:46 44.08976 -68.52046 37783 ft 388 kts 252°
2026-05-07 14:46 44.07383 -68.59183 37789 ft 385 kts 252°
2026-05-07 14:47 44.05791 -68.66292 37788 ft 385 kts 252°
2026-05-07 14:47 44.04206 -68.73343 37791 ft 385 kts 252°
2026-05-07 14:48 44.02607 -68.80437 37791 ft 385 kts 252°
2026-05-07 14:48 44.01002 -68.87533 37819 ft 386 kts 252°
2026-05-07 14:49 43.99382 -68.94669 37793 ft 389 kts 251°
2026-05-07 14:49 43.97752 -69.01822 37795 ft 386 kts 252°
2026-05-07 14:50 43.96148 -69.08847 37796 ft 384 kts 252°
2026-05-07 14:50 43.94532 -69.15903 37793 ft 384 kts 252°
2026-05-07 14:51 43.92910 -69.22958 37796 ft 384 kts 252°
2026-05-07 14:51 43.91282 -69.30017 37801 ft 384 kts 252°
2026-05-07 14:52 43.89662 -69.37019 37807 ft 385 kts 251°
2026-05-07 14:52 43.88011 -69.44129 37787 ft 389 kts 251°
2026-05-07 14:53 43.86358 -69.51224 37812 ft 384 kts 251°
2026-05-07 14:53 43.84717 -69.58252 37810 ft 383 kts 251°
2026-05-07 14:54 43.83349 -69.64087 37811 ft 383 kts 251°
2026-05-07 14:54 43.81432 -69.72245 37812 ft 384 kts 251°
2026-05-07 14:55 43.80044 -69.78132 37812 ft 384 kts 251°
2026-05-07 14:55 43.78394 -69.85112 37817 ft 385 kts 251°
2026-05-07 14:56 43.76716 -69.92181 37806 ft 387 kts 251°
2026-05-07 14:56 43.75039 -69.99228 37813 ft 385 kts 251°
2026-05-07 14:57 43.73373 -70.06211 37809 ft 385 kts 251°
2026-05-07 14:57 43.71692 -70.13229 37795 ft 385 kts 251°
2026-05-07 14:58 43.70005 -70.20253 37794 ft 385 kts 251°
2026-05-07 14:58 43.68317 -70.27261 37793 ft 385 kts 251°
2026-05-07 14:59 43.66619 -70.34289 37782 ft 387 kts 251°
2026-05-07 14:59 43.64920 -70.41292 37798 ft 386 kts 251°
2026-05-07 15:00 43.63217 -70.48297 37801 ft 385 kts 251°
2026-05-07 15:00 43.61507 -70.55307 37806 ft 385 kts 251°
2026-05-07 15:01 43.59797 -70.62294 37805 ft 385 kts 251°
2026-05-07 15:01 43.58079 -70.69293 37818 ft 385 kts 251°
2026-05-07 15:02 43.56339 -70.76274 37825 ft 386 kts 249°
2026-05-07 15:02 43.53893 -70.82830 37811 ft 390 kts 238°
2026-05-07 15:03 43.50277 -70.88405 37816 ft 395 kts 226°
2026-05-07 15:03 43.45652 -70.92670 37815 ft 404 kts 218°
2026-05-07 15:04 43.40736 -70.96478 37820 ft 406 kts 217°
2026-05-07 15:04 43.35810 -71.00234 37821 ft 403 kts 218°
2026-05-07 15:05 43.30978 -71.03956 37823 ft 399 kts 218°
2026-05-07 15:05 43.26154 -71.07703 37822 ft 399 kts 218°
2026-05-07 15:06 43.21324 -71.11454 37820 ft 399 kts 218°
2026-05-07 15:06 43.16492 -71.15196 37819 ft 399 kts 218°
2026-05-07 15:07 43.11687 -71.18906 37824 ft 399 kts 218°
2026-05-07 15:07 43.07068 -71.22985 37825 ft 390 kts 226°
2026-05-07 15:08 43.03329 -71.28172 37834 ft 379 kts 234°
2026-05-07 15:08 43.00005 -71.33712 37845 ft 376 kts 236°
2026-05-07 15:09 42.96739 -71.39277 37842 ft 375 kts 236°
2026-05-07 15:09 42.93477 -71.44795 37838 ft 376 kts 236°
2026-05-07 15:10 42.90180 -71.50327 37777 ft 376 kts 236°
2026-05-07 15:10 42.86898 -71.55805 37885 ft 370 kts 236°
2026-05-07 15:11 42.83646 -71.61233 37850 ft 371 kts 236°
2026-05-07 15:11 42.80370 -71.66695 37849 ft 372 kts 236°
2026-05-07 15:12 42.77112 -71.72112 37849 ft 373 kts 236°
2026-05-07 15:12 42.73831 -71.77555 37858 ft 371 kts 236°
2026-05-07 15:13 42.70578 -71.82938 37856 ft 366 kts 236°
2026-05-07 15:13 42.67355 -71.88267 37862 ft 365 kts 236°
2026-05-07 15:14 42.64153 -71.93559 37863 ft 366 kts 236°
2026-05-07 15:14 42.60897 -71.98929 37858 ft 369 kts 236°
2026-05-07 15:15 42.57629 -72.04303 37854 ft 368 kts 236°
2026-05-07 15:15 42.54377 -72.09635 37854 ft 366 kts 236°
2026-05-07 15:16 42.51156 -72.14914 37865 ft 366 kts 236°
2026-05-07 15:16 42.47911 -72.20225 37884 ft 366 kts 236°
2026-05-07 15:17 42.44663 -72.25529 37889 ft 366 kts 236°
2026-05-07 15:17 42.41411 -72.30829 37874 ft 365 kts 236°
2026-05-07 15:18 42.38172 -72.36098 37880 ft 364 kts 236°
2026-05-07 15:18 42.34960 -72.41316 37870 ft 363 kts 236°
2026-05-07 15:19 42.31724 -72.46565 37870 ft 364 kts 236°
2026-05-07 15:19 42.28478 -72.51818 37873 ft 364 kts 236°
2026-05-07 15:20 42.25249 -72.57030 37870 ft 360 kts 236°
2026-05-07 15:20 42.22078 -72.62141 37871 ft 357 kts 236°
2026-05-07 15:21 42.18872 -72.67315 37869 ft 361 kts 236°
2026-05-07 15:21 42.15649 -72.72499 37905 ft 361 kts 236°
2026-05-07 15:22 42.12516 -72.77784 37907 ft 360 kts 237°
2026-05-07 15:22 42.09481 -72.83056 37909 ft 357 kts 237°
2026-05-07 15:23 42.06441 -72.88302 37901 ft 355 kts 238°
2026-05-07 15:23 42.03393 -72.93520 37900 ft 355 kts 237°
2026-05-07 15:24 42.00320 -72.98749 37899 ft 359 kts 237°
2026-05-07 15:24 41.97161 -73.04011 37899 ft 365 kts 234°
2026-05-07 15:25 41.93376 -73.08575 37887 ft 373 kts 225°
2026-05-07 15:25 41.89036 -73.12386 37903 ft 373 kts 223°
2026-05-07 15:26 41.84627 -73.16052 37902 ft 373 kts 222°
2026-05-07 15:26 41.80211 -73.19716 37906 ft 373 kts 222°
2026-05-07 15:27 41.75808 -73.23387 37901 ft 372 kts 223°
2026-05-07 15:27 41.71472 -73.27007 37909 ft 368 kts 223°
2026-05-07 15:28 41.67193 -73.30722 37942 ft 363 kts 226°
2026-05-07 15:28 41.63538 -73.35237 37916 ft 355 kts 234°
2026-05-07 15:29 41.60272 -73.40177 37911 ft 355 kts 236°
2026-05-07 15:29 41.57075 -73.45141 37914 ft 355 kts 236°
2026-05-07 15:30 41.53853 -73.50123 37917 ft 354 kts 236°
2026-05-07 15:30 41.50623 -73.55084 37920 ft 354 kts 235°
2026-05-07 15:31 41.47384 -73.60039 37931 ft 355 kts 235°
2026-05-07 15:31 41.44158 -73.64963 37931 ft 355 kts 235°
2026-05-07 15:32 41.40910 -73.69914 37926 ft 355 kts 235°
2026-05-07 15:32 41.37650 -73.74875 37923 ft 355 kts 235°
2026-05-07 15:33 41.34396 -73.79819 37921 ft 355 kts 235°
2026-05-07 15:33 41.31106 -73.84742 37918 ft 356 kts 234°
2026-05-07 15:34 41.27802 -73.89590 37914 ft 356 kts 234°
2026-05-07 15:34 41.24480 -73.94460 37921 ft 353 kts 235°
2026-05-07 15:35 41.21206 -73.99263 37922 ft 349 kts 235°
2026-05-07 15:35 41.17947 -74.04054 37921 ft 351 kts 235°
2026-05-07 15:36 41.14728 -74.08900 37930 ft 351 kts 238°
2026-05-07 15:36 41.11991 -74.14224 37936 ft 348 kts 242°
2026-05-07 15:37 41.09429 -74.19663 37895 ft 348 kts 242°
2026-05-07 15:37 41.06901 -74.25088 37946 ft 344 kts 243°
2026-05-07 15:38 41.04382 -74.30467 37941 ft 343 kts 242°
2026-05-07 15:38 41.01877 -74.35791 37977 ft 343 kts 242°
2026-05-07 15:39 40.99337 -74.41179 37945 ft 347 kts 242°
2026-05-07 15:39 40.96769 -74.46612 37940 ft 349 kts 242°
2026-05-07 15:40 40.94191 -74.52052 37948 ft 349 kts 242°
2026-05-07 15:40 40.91620 -74.57466 37948 ft 346 kts 242°
2026-05-07 15:41 40.89085 -74.62797 37947 ft 344 kts 242°
2026-05-07 15:41 40.86541 -74.68147 37950 ft 344 kts 242°
2026-05-07 15:42 40.83990 -74.73499 37944 ft 344 kts 242°
2026-05-07 15:42 40.81452 -74.78814 37946 ft 344 kts 242°
2026-05-07 15:43 40.78906 -74.84160 37939 ft 344 kts 243°
2026-05-07 15:43 40.76458 -74.89569 37933 ft 343 kts 244°
2026-05-07 15:44 40.74046 -74.94977 37938 ft 341 kts 244°
2026-05-07 15:44 40.71632 -75.00342 37937 ft 340 kts 243°
2026-05-07 15:45 40.69220 -75.05665 37949 ft 341 kts 243°
2026-05-07 15:45 40.66779 -75.11033 37948 ft 342 kts 243°
2026-05-07 15:46 40.63101 -75.19104 37955 ft 343 kts 243°
2026-05-07 15:47 40.60646 -75.24480 37910 ft 342 kts 243°
2026-05-07 15:47 40.58205 -75.29817 37959 ft 342 kts 243°
2026-05-07 15:48 40.55752 -75.35170 37962 ft 342 kts 243°
2026-05-07 15:48 40.53300 -75.40519 37959 ft 341 kts 243°
2026-05-07 15:49 40.50850 -75.45868 37962 ft 342 kts 243°
2026-05-07 15:49 40.48374 -75.51232 37961 ft 344 kts 243°
2026-05-07 15:50 40.45893 -75.56600 37961 ft 344 kts 243°
2026-05-07 15:50 40.43429 -75.61928 37936 ft 344 kts 243°
2026-05-07 15:51 40.40955 -75.67285 37967 ft 343 kts 243°
2026-05-07 15:51 40.38476 -75.72628 37967 ft 343 kts 243°
2026-05-07 15:52 40.35991 -75.77963 37967 ft 343 kts 243°
2026-05-07 15:52 40.33507 -75.83297 37969 ft 343 kts 243°
2026-05-07 15:53 40.31033 -75.88616 37951 ft 344 kts 243°
2026-05-07 15:53 40.28541 -75.93944 37966 ft 344 kts 243°
2026-05-07 15:54 40.26034 -75.99293 37950 ft 345 kts 243°
2026-05-07 15:54 40.23530 -76.04633 37962 ft 344 kts 243°
2026-05-07 15:55 40.21031 -76.09958 37968 ft 343 kts 243°
2026-05-07 15:55 40.18545 -76.15245 38003 ft 344 kts 243°
2026-05-07 15:56 40.16039 -76.20567 37972 ft 344 kts 243°
2026-05-07 15:56 40.13529 -76.25884 37974 ft 344 kts 243°
2026-05-07 15:57 40.11021 -76.31209 37974 ft 344 kts 243°
2026-05-07 15:57 40.08554 -76.36563 37957 ft 344 kts 244°
2026-05-07 15:58 40.06097 -76.41915 37967 ft 344 kts 244°
2026-05-07 15:58 40.03650 -76.47221 37969 ft 343 kts 244°
2026-05-07 15:59 40.01183 -76.52566 37982 ft 343 kts 244°
2026-05-07 15:59 39.98711 -76.57888 37975 ft 343 kts 243°
2026-05-07 16:00 39.96238 -76.63202 37981 ft 343 kts 243°
2026-05-07 16:00 39.93778 -76.68484 37977 ft 342 kts 243°
2026-05-07 16:01 39.91312 -76.73790 37982 ft 343 kts 243°
2026-05-07 16:01 39.88837 -76.79087 37979 ft 343 kts 243°
2026-05-07 16:02 39.86349 -76.84394 37951 ft 343 kts 243°
2026-05-07 16:02 39.83857 -76.89709 37973 ft 344 kts 243°
2026-05-07 16:03 39.81379 -76.94989 37976 ft 345 kts 243°
2026-05-07 16:03 39.78878 -77.00306 37952 ft 345 kts 243°
2026-05-07 16:04 39.76374 -77.05622 37949 ft 345 kts 243°
2026-05-07 16:04 39.73866 -77.10936 37952 ft 345 kts 243°
2026-05-07 16:05 39.71364 -77.16229 37961 ft 343 kts 243°
2026-05-07 16:05 39.68888 -77.21465 37961 ft 343 kts 243°
2026-05-07 16:06 39.66392 -77.26740 37975 ft 343 kts 243°
2026-05-07 16:06 39.63884 -77.32012 37974 ft 344 kts 243°
2026-05-07 16:07 39.61370 -77.37289 37980 ft 344 kts 243°
2026-05-07 16:07 39.58853 -77.42568 37980 ft 344 kts 243°
2026-05-07 16:08 39.56353 -77.47803 37948 ft 344 kts 243°
2026-05-07 16:08 39.53845 -77.53046 37980 ft 342 kts 243°
2026-05-07 16:09 39.51337 -77.58286 37978 ft 341 kts 243°
2026-05-07 16:09 39.48832 -77.63510 37981 ft 342 kts 243°
2026-05-07 16:10 39.46313 -77.68755 37972 ft 343 kts 243°
2026-05-07 16:10 39.43783 -77.74007 37970 ft 343 kts 243°
2026-05-07 16:11 39.41272 -77.79211 37969 ft 343 kts 243°
2026-05-07 16:11 39.38745 -77.84443 37896 ft 343 kts 243°
2026-05-07 16:12 39.36403 -77.89787 37960 ft 340 kts 247°
2026-05-07 16:12 39.34326 -77.95271 37955 ft 340 kts 248°
2026-05-07 16:13 39.32234 -78.00743 37950 ft 340 kts 247°
2026-05-07 16:13 39.30106 -78.06150 37948 ft 340 kts 246°
2026-05-07 16:14 39.27941 -78.11579 37946 ft 340 kts 246°
2026-05-07 16:14 39.25769 -78.17007 37944 ft 340 kts 246°
2026-05-07 16:15 39.23599 -78.22426 37943 ft 340 kts 246°
2026-05-07 16:15 39.21428 -78.27845 37944 ft 340 kts 246°
2026-05-07 16:16 39.19267 -78.33234 37951 ft 341 kts 246°
2026-05-07 16:16 39.17085 -78.38662 37951 ft 341 kts 246°
2026-05-07 16:17 39.14899 -78.44081 37956 ft 341 kts 246°
2026-05-07 16:17 39.12713 -78.49498 37937 ft 341 kts 246°
2026-05-07 16:18 39.10526 -78.54911 37955 ft 341 kts 246°
2026-05-07 16:18 39.08345 -78.60300 37769 ft 340 kts 246°
2026-05-07 16:18 39.07260 -78.62975 37146 ft 337 kts 246°
2026-05-07 16:19 39.06183 -78.65620 36905 ft 328 kts 246°
2026-05-07 16:19 39.05122 -78.68225 37013 ft 325 kts 246°
2026-05-07 16:19 39.04066 -78.70824 37152 ft 327 kts 246°
2026-05-07 16:20 39.01948 -78.76039 37301 ft 335 kts 246°
2026-05-07 16:20 39.00863 -78.78706 37458 ft 338 kts 246°
2026-05-07 16:20 38.99773 -78.81379 37643 ft 339 kts 246°
2026-05-07 16:20 38.98675 -78.84070 37883 ft 339 kts 246°
2026-05-07 16:21 38.97580 -78.86756 38143 ft 339 kts 246°
2026-05-07 16:21 38.96489 -78.89434 38398 ft 339 kts 246°
2026-05-07 16:21 38.95396 -78.92108 38692 ft 337 kts 247°
2026-05-07 16:21 38.94302 -78.94777 38852 ft 338 kts 246°
2026-05-07 16:22 38.93199 -78.97462 39003 ft 340 kts 246°
2026-05-07 16:22 38.92112 -79.00109 39164 ft 341 kts 246°
2026-05-07 16:22 38.91005 -79.02800 39296 ft 342 kts 246°
2026-05-07 16:22 38.89890 -79.05500 39407 ft 342 kts 246°
2026-05-07 16:23 38.88776 -79.08197 39680 ft 340 kts 246°
2026-05-07 16:23 38.87663 -79.10878 39834 ft 341 kts 246°
2026-05-07 16:23 38.86552 -79.13568 39938 ft 343 kts 246°
2026-05-07 16:24 38.84459 -79.19060 39902 ft 341 kts 251°
2026-05-07 16:24 38.83108 -79.24828 39952 ft 340 kts 256°
2026-05-07 16:25 38.82026 -79.30729 39955 ft 340 kts 257°
2026-05-07 16:25 38.80987 -79.36627 39967 ft 340 kts 257°
2026-05-07 16:26 38.79935 -79.42529 39954 ft 339 kts 257°
2026-05-07 16:26 38.78870 -79.48436 39971 ft 341 kts 257°
2026-05-07 16:27 38.77801 -79.54323 39965 ft 342 kts 257°
2026-05-07 16:27 38.76723 -79.60242 39972 ft 341 kts 256°
2026-05-07 16:28 38.75643 -79.66155 39978 ft 341 kts 257°
2026-05-07 16:28 38.74563 -79.72067 39983 ft 341 kts 257°
2026-05-07 16:29 38.73482 -79.77985 39978 ft 341 kts 256°
2026-05-07 16:29 38.72390 -79.83868 39988 ft 343 kts 256°
2026-05-07 16:30 38.71291 -79.89822 39984 ft 343 kts 256°
2026-05-07 16:30 38.70190 -79.95769 39985 ft 343 kts 256°
2026-05-07 16:31 38.69085 -80.01715 39955 ft 343 kts 256°
2026-05-07 16:31 38.67991 -80.07664 39977 ft 343 kts 256°
2026-05-07 16:32 38.66875 -80.13590 39973 ft 342 kts 256°
2026-05-07 16:32 38.65759 -80.19481 39989 ft 344 kts 256°
2026-05-07 16:33 38.64636 -80.25437 39989 ft 345 kts 256°
2026-05-07 16:33 38.63512 -80.31399 39990 ft 345 kts 256°
2026-05-07 16:34 38.62385 -80.37357 39989 ft 345 kts 256°
2026-05-07 16:34 38.61261 -80.43284 39991 ft 345 kts 256°
2026-05-07 16:35 38.60129 -80.49245 39986 ft 345 kts 256°
2026-05-07 16:35 38.58996 -80.55211 40000 ft 347 kts 256°
2026-05-07 16:36 38.57839 -80.61217 39992 ft 348 kts 256°
2026-05-07 16:36 38.56688 -80.67170 39990 ft 347 kts 256°
2026-05-07 16:37 38.55531 -80.73166 39987 ft 348 kts 256°
2026-05-07 16:37 38.54371 -80.79169 39992 ft 348 kts 256°
2026-05-07 16:38 38.53207 -80.85173 39940 ft 348 kts 256°
2026-05-07 16:38 38.52035 -80.91169 40032 ft 349 kts 256°
2026-05-07 16:39 38.50871 -80.97135 40008 ft 348 kts 256°
2026-05-07 16:39 38.49699 -81.03134 39991 ft 349 kts 256°
2026-05-07 16:40 38.48520 -81.09141 40010 ft 349 kts 256°
2026-05-07 16:40 38.47339 -81.15142 39998 ft 348 kts 256°
2026-05-07 16:41 38.46155 -81.21145 40009 ft 349 kts 256°
2026-05-07 16:41 38.44975 -81.27105 40006 ft 349 kts 256°
2026-05-07 16:42 38.43786 -81.33099 40006 ft 349 kts 256°
2026-05-07 16:42 38.42592 -81.39101 40002 ft 349 kts 256°
2026-05-07 16:43 38.41395 -81.45099 40002 ft 348 kts 256°
2026-05-07 16:43 38.40196 -81.51085 40006 ft 348 kts 256°
2026-05-07 16:44 38.39002 -81.57023 40017 ft 348 kts 256°
2026-05-07 16:44 38.37798 -81.62998 40020 ft 348 kts 256°
2026-05-07 16:45 38.36591 -81.68976 40022 ft 349 kts 256°
2026-05-07 16:45 38.35380 -81.74956 40013 ft 349 kts 256°
2026-05-07 16:46 38.33908 -81.80792 40012 ft 349 kts 252°
2026-05-07 16:46 38.32293 -81.86622 40008 ft 349 kts 252°
2026-05-07 16:47 38.30659 -81.92434 40006 ft 348 kts 252°
2026-05-07 16:47 38.29023 -81.98238 40007 ft 348 kts 252°
2026-05-07 16:48 38.27388 -82.04046 40008 ft 349 kts 252°
2026-05-07 16:48 38.25765 -82.09810 40003 ft 348 kts 252°
2026-05-07 16:49 38.24127 -82.15614 40002 ft 348 kts 252°
2026-05-07 16:49 38.22485 -82.21412 40000 ft 348 kts 252°
2026-05-07 16:50 38.20842 -82.27207 40003 ft 348 kts 252°
2026-05-07 16:50 38.19208 -82.32958 40002 ft 348 kts 252°
2026-05-07 16:51 38.17564 -82.38744 40002 ft 348 kts 252°
2026-05-07 16:51 38.15903 -82.44550 40013 ft 353 kts 252°
2026-05-07 16:52 38.14201 -82.50496 40016 ft 362 kts 252°
2026-05-07 16:52 38.12476 -82.56507 40012 ft 365 kts 252°
2026-05-07 16:53 38.10735 -82.62554 40017 ft 365 kts 252°
2026-05-07 16:53 38.08993 -82.68599 40011 ft 364 kts 252°
2026-05-07 16:54 38.07248 -82.74639 40012 ft 364 kts 252°
2026-05-07 16:54 38.05511 -82.80641 40021 ft 366 kts 252°
2026-05-07 16:55 38.03747 -82.86725 40022 ft 369 kts 252°
2026-05-07 16:55 38.01971 -82.92833 40006 ft 370 kts 252°
2026-05-07 16:56 38.00488 -82.97918 40007 ft 369 kts 252°
2026-05-07 16:56 37.97527 -83.08058 40005 ft 367 kts 252°
2026-05-07 16:57 37.96047 -83.13104 40023 ft 363 kts 252°
2026-05-07 16:57 37.94288 -83.19094 40036 ft 364 kts 252°
2026-05-07 16:58 37.92510 -83.25137 40029 ft 367 kts 252°
2026-05-07 16:58 37.90737 -83.31151 40033 ft 367 kts 252°
2026-05-07 16:59 37.88947 -83.37206 40030 ft 368 kts 252°
2026-05-07 16:59 37.87152 -83.43265 40031 ft 368 kts 252°
2026-05-07 17:00 37.85353 -83.49318 40033 ft 368 kts 252°
2026-05-07 17:00 37.83561 -83.55339 40046 ft 368 kts 252°
2026-05-07 17:01 37.81752 -83.61411 40028 ft 370 kts 252°
2026-05-07 17:01 37.79927 -83.67518 40032 ft 371 kts 252°
2026-05-07 17:02 37.78101 -83.73617 39990 ft 370 kts 252°
2026-05-07 17:02 37.76297 -83.79620 40041 ft 365 kts 252°
2026-05-07 17:03 37.74495 -83.85614 40038 ft 365 kts 252°
2026-05-07 17:03 37.72692 -83.91604 40061 ft 366 kts 252°
2026-05-07 17:04 37.70877 -83.97617 40046 ft 367 kts 252°
2026-05-07 17:04 37.69048 -84.03648 40054 ft 368 kts 252°
2026-05-07 17:05 37.67204 -84.09675 40061 ft 369 kts 251°
2026-05-07 17:05 37.64751 -84.15356 40067 ft 376 kts 241°
2026-05-07 17:06 37.61202 -84.20298 40071 ft 387 kts 231°
2026-05-07 17:06 37.57137 -84.24806 40022 ft 389 kts 230°
2026-05-07 17:07 37.53032 -84.29211 40082 ft 386 kts 230°
2026-05-07 17:07 37.48948 -84.33624 40068 ft 387 kts 231°
2026-05-07 17:08 37.44904 -84.38025 40049 ft 387 kts 231°
2026-05-07 17:08 37.40833 -84.42458 40050 ft 388 kts 231°
2026-05-07 17:09 37.36752 -84.46894 40051 ft 388 kts 231°
2026-05-07 17:09 37.32696 -84.51293 40031 ft 386 kts 231°
2026-05-07 17:10 37.28652 -84.55667 40054 ft 383 kts 231°
2026-05-07 17:10 37.24617 -84.60034 40041 ft 382 kts 231°
2026-05-07 17:11 37.20585 -84.64392 40039 ft 383 kts 231°
2026-05-07 17:11 37.16553 -84.68743 40052 ft 383 kts 231°
2026-05-07 17:12 37.12522 -84.73089 40036 ft 386 kts 231°
2026-05-07 17:12 37.08441 -84.77473 40042 ft 385 kts 231°
2026-05-07 17:13 37.04407 -84.81816 39785 ft 378 kts 233°
2026-05-07 17:13 37.02629 -84.84167 39135 ft 367 kts 240°
2026-05-07 17:13 37.01207 -84.86777 38412 ft 360 kts 246°
2026-05-07 17:14 36.99919 -84.89449 37739 ft 357 kts 246°
2026-05-07 17:14 36.98674 -84.92057 37154 ft 353 kts 246°
2026-05-07 17:14 36.97423 -84.94675 36555 ft 350 kts 246°
2026-05-07 17:14 36.96178 -84.97285 35958 ft 347 kts 246°
2026-05-07 17:15 36.94948 -84.99866 35360 ft 344 kts 246°
2026-05-07 17:15 36.93724 -85.02430 34739 ft 342 kts 246°
2026-05-07 17:15 36.92508 -85.04979 34075 ft 342 kts 246°
2026-05-07 17:15 36.91287 -85.07537 33313 ft 341 kts 245°
2026-05-07 17:16 36.90072 -85.10072 32602 ft 340 kts 245°
2026-05-07 17:16 36.88877 -85.12568 31843 ft 339 kts 245°
2026-05-07 17:16 36.87667 -85.15086 31164 ft 338 kts 245°
2026-05-07 17:16 36.86460 -85.17610 30503 ft 338 kts 245°
2026-05-07 17:17 36.85260 -85.20113 29930 ft 336 kts 245°
2026-05-07 17:17 36.84062 -85.22606 29402 ft 333 kts 245°
2026-05-07 17:17 36.82873 -85.25078 28874 ft 332 kts 244°
2026-05-07 17:17 36.81685 -85.27549 28362 ft 331 kts 244°
2026-05-07 17:18 36.80505 -85.30002 27844 ft 330 kts 244°
2026-05-07 17:18 36.79323 -85.32456 27318 ft 330 kts 244°
2026-05-07 17:18 36.78141 -85.34908 26809 ft 330 kts 244°
2026-05-07 17:18 36.76959 -85.37355 26285 ft 329 kts 244°
2026-05-07 17:19 36.75778 -85.39803 25777 ft 329 kts 244°
2026-05-07 17:19 36.74612 -85.42222 25267 ft 329 kts 244°
2026-05-07 17:19 36.73429 -85.44666 24759 ft 331 kts 244°
2026-05-07 17:19 36.72242 -85.47123 24238 ft 333 kts 244°
2026-05-07 17:20 36.71048 -85.49597 23700 ft 334 kts 243°
2026-05-07 17:20 36.69842 -85.52082 23114 ft 334 kts 243°
2026-05-07 17:20 36.68642 -85.54553 22564 ft 334 kts 243°
2026-05-07 17:20 36.67442 -85.57022 22036 ft 332 kts 243°
2026-05-07 17:21 36.66262 -85.59448 21488 ft 331 kts 244°
2026-05-07 17:21 36.65061 -85.61914 20977 ft 327 kts 244°
2026-05-07 17:21 36.63907 -85.64285 20560 ft 320 kts 244°
2026-05-07 17:21 36.62778 -85.66596 20416 ft 305 kts 244°
2026-05-07 17:22 36.61703 -85.68796 20319 ft 291 kts 244°
2026-05-07 17:22 36.60678 -85.70896 20214 ft 278 kts 244°
2026-05-07 17:22 36.59685 -85.72935 20102 ft 277 kts 244°
2026-05-07 17:22 36.58682 -85.75004 19950 ft 280 kts 244°
2026-05-07 17:23 36.57676 -85.77072 19519 ft 279 kts 244°
2026-05-07 17:23 36.56683 -85.79108 19099 ft 279 kts 244°
2026-05-07 17:23 36.55673 -85.81209 18840 ft 291 kts 245°
2026-05-07 17:23 36.54625 -85.83436 18766 ft 302 kts 245°
2026-05-07 17:24 36.53562 -85.85674 18470 ft 299 kts 244°
2026-05-07 17:24 36.52501 -85.87902 17973 ft 299 kts 244°
2026-05-07 17:24 36.51437 -85.90141 17652 ft 302 kts 244°
2026-05-07 17:24 36.50367 -85.92389 17338 ft 302 kts 244°
2026-05-07 17:25 36.49298 -85.94629 17043 ft 300 kts 244°
2026-05-07 17:25 36.48236 -85.96851 16690 ft 299 kts 244°
2026-05-07 17:25 36.47183 -85.99067 16407 ft 297 kts 245°
2026-05-07 17:25 36.46132 -86.01270 16121 ft 296 kts 244°
2026-05-07 17:26 36.45093 -86.03438 15847 ft 295 kts 244°
2026-05-07 17:26 36.44050 -86.05623 15567 ft 294 kts 245°
2026-05-07 17:26 36.43010 -86.07798 15262 ft 292 kts 244°
2026-05-07 17:26 36.41972 -86.09958 15001 ft 291 kts 244°
2026-05-07 17:27 36.40937 -86.12115 14730 ft 291 kts 244°
2026-05-07 17:27 36.39901 -86.14276 14442 ft 291 kts 244°
2026-05-07 17:27 36.38870 -86.16425 14164 ft 290 kts 244°
2026-05-07 17:27 36.37836 -86.18576 13906 ft 290 kts 244°
2026-05-07 17:28 36.36805 -86.20722 13596 ft 289 kts 244°
2026-05-07 17:28 36.35791 -86.22831 13327 ft 289 kts 244°
2026-05-07 17:28 36.34760 -86.24976 13045 ft 289 kts 244°
2026-05-07 17:28 36.33733 -86.27106 12866 ft 284 kts 244°
2026-05-07 17:29 36.32740 -86.29157 12674 ft 271 kts 244°
2026-05-07 17:29 36.31788 -86.31125 12426 ft 261 kts 244°
2026-05-07 17:29 36.30872 -86.33024 12191 ft 254 kts 244°
2026-05-07 17:29 36.29968 -86.34904 11946 ft 255 kts 244°
2026-05-07 17:30 36.29054 -86.36806 11702 ft 257 kts 244°
2026-05-07 17:30 36.28136 -86.38710 11450 ft 258 kts 244°
2026-05-07 17:30 36.27226 -86.40595 11217 ft 258 kts 244°
2026-05-07 17:30 36.26305 -86.42502 11034 ft 249 kts 244°
2026-05-07 17:31 36.25431 -86.44303 10794 ft 240 kts 244°
2026-05-07 17:31 36.24579 -86.46057 10569 ft 236 kts 244°
2026-05-07 17:31 36.23742 -86.47784 10345 ft 238 kts 244°
2026-05-07 17:31 36.22886 -86.49551 10101 ft 239 kts 243°
2026-05-07 17:32 36.21884 -86.51206 9849 ft 245 kts 229°
2026-05-07 17:32 36.20410 -86.52341 9490 ft 255 kts 207°
2026-05-07 17:32 36.18737 -86.53031 9249 ft 249 kts 204°
2026-05-07 17:32 36.17108 -86.53646 9020 ft 241 kts 204°
2026-05-07 17:33 36.15533 -86.54254 8791 ft 235 kts 205°
2026-05-07 17:33 36.13989 -86.54864 8564 ft 233 kts 205°
2026-05-07 17:33 36.12446 -86.55480 8338 ft 233 kts 205°
2026-05-07 17:33 36.10940 -86.56171 8116 ft 228 kts 213°
2026-05-07 17:34 36.09717 -86.57352 7831 ft 221 kts 232°
2026-05-07 17:34 36.08733 -86.58765 7488 ft 220 kts 236°
2026-05-07 17:34 36.07765 -86.60229 7180 ft 221 kts 235°
2026-05-07 17:34 36.06785 -86.61699 6886 ft 222 kts 234°
2026-05-07 17:35 36.05798 -86.63165 6585 ft 222 kts 234°
2026-05-07 17:35 36.04804 -86.64634 6293 ft 222 kts 234°
2026-05-07 17:35 36.03810 -86.66103 6002 ft 224 kts 234°
2026-05-07 17:35 36.02809 -86.67577 5691 ft 224 kts 233°
2026-05-07 17:36 36.01802 -86.69056 5401 ft 226 kts 233°
2026-05-07 17:36 36.00788 -86.70545 5095 ft 227 kts 233°
2026-05-07 17:36 35.99765 -86.72048 4781 ft 230 kts 233°
2026-05-07 17:36 35.98757 -86.73541 4456 ft 229 kts 234°
2026-05-07 17:37 35.98015 -86.75244 4178 ft 224 kts 261°
2026-05-07 17:37 35.98101 -86.77092 3895 ft 214 kts 295°
2026-05-07 17:37 35.98959 -86.78526 3620 ft 205 kts 326°
2026-05-07 17:37 36.00220 -86.79153 3585 ft 194 kts 353°
2026-05-07 17:38 36.01517 -86.78978 3529 ft 186 kts 19°
2026-05-07 17:38 36.02580 -86.78097 3319 ft 188 kts 45°
2026-05-07 17:38 36.03171 -86.76688 3120 ft 182 kts 75°
2026-05-07 17:38 36.03175 -86.75154 2987 ft 183 kts 95°
2026-05-07 17:39 36.02939 -86.73594 2599 ft 183 kts 91°
2026-05-07 17:39 36.03361 -86.72239 2451 ft 171 kts 39°
2026-05-07 17:39 36.04338 -86.71443 2270 ft 167 kts 22°
2026-05-07 17:39 36.05422 -86.71143 2037 ft 157 kts
2026-05-07 17:40 36.06456 -86.70855 1807 ft 147 kts 15°
2026-05-07 17:40 36.07391 -86.70471 1598 ft 135 kts 18°
2026-05-07 17:40 36.08240 -86.70092 1402 ft 130 kts 19°
2026-05-07 17:40 36.09114 -86.69718 1210 ft 133 kts 18°
2026-05-07 17:41 36.09995 -86.69362 1018 ft 133 kts 16°
2026-05-07 17:41 36.10899 -86.68996 829 ft 137 kts 15°
2026-05-07 17:41 36.11802 -86.68642 586 ft 140 kts 18°
2026-05-07 17:41 36.12654 -86.68303 586 ft 106 kts 18°
2026-05-07 17:42 36.13065 -86.68141 583 ft 15 kts 18°
2026-05-07 17:42 36.13128 -86.68115 584 ft 14 kts 18°
2026-05-07 17:42 36.13231 -86.68070 585 ft 17 kts 26°
2026-05-07 17:42 36.13298 -86.67968 587 ft 9 kts 62°
2026-05-07 17:43 36.13337 -86.67877 583 ft 15 kts 57°
2026-05-07 17:43 36.13430 -86.67812 588 ft 17 kts 18°
2026-05-07 17:43 36.13519 -86.67740 587 ft 10 kts 77°
2026-05-07 17:43 36.13505 -86.67642 580 ft 18 kts 107°
2026-05-07 17:44 36.13457 -86.67459 577 ft 24 kts 108°
2026-05-07 17:44 36.13408 -86.67344 579 ft 0 kts 150°
2026-05-07 17:45 36.13397 -86.67339 577 ft 4 kts 157°
2026-05-07 17:45 36.13348 -86.67338 577 ft 13 kts 192°
2026-05-07 17:45 36.13233 -86.67362 580 ft 27 kts 186°
2026-05-07 17:46 36.13033 -86.67366 580 ft 24 kts 161°
2026-05-07 17:46 36.13007 -86.67352 583 ft 4 kts 152°
2026-05-07 17:46 36.12969 -86.67322 582 ft 12 kts 143°
2026-05-07 17:46 36.12935 -86.67269 583 ft 0 kts 98°
2026-05-07 17:47 36.12944 -86.67243 581 ft 8 kts 63°
2026-05-07 17:47 36.13005 -86.67171 581 ft 15 kts 17°
2026-05-07 17:47 36.13063 -86.67119 583 ft 9 kts 52°
2026-05-07 17:47 36.13076 -86.67096 581 ft 1 kts 55°
2026-05-07 17:48 36.13082 -86.67085 583 ft 2 kts 55°
2026-05-07 17:48 36.13087 -86.67077 583 ft 0 kts 55°